GEFSMA_500_meanwind_000.txt.gz
Wind_Speed
46 45 45 45 46 48 48 45 47 50 51 46 44 42 43 43 40 38 37 35 34 32 31 29 25 24 26 26 24 23 21 22 22 22 20 19 19 20 21 21 21 20 19
41 40 39 40 41 42 42 42 45 52 51 38 35 38 35 38 43 42 43 41 36 34 33 31 28 29 29 28 27 25 25 25 26 26 24 22 20 19 21 23 24 23 22
34 32 32 33 34 34 35 37 40 41 35 32 33 33 28 28 28 34 42 43 40 37 34 33 30 30 33 33 31 30 29 29 30 30 29 28 25 23 22 24 26 28 28
31 31 31 30 31 31 35 37 38 39 35 31 33 33 29 33 28 31 34 37 38 38 36 33 31 31 33 35 34 32 33 33 33 34 34 32 30 27 26 26 26 27 29
28 28 28 28 30 31 33 36 37 37 33 31 32 31 29 30 30 31 29 31 35 37 37 37 32 32 31 33 35 35 36 38 37 38 38 37 34 31 30 28 27 27 28
25 24 25 26 27 30 32 36 38 37 33 30 29 28 28 28 28 30 28 28 31 36 39 41 34 33 32 34 36 36 38 40 42 42 43 41 38 36 33 31 29 27 28
20 21 21 21 23 26 30 34 38 39 36 33 31 29 28 27 27 27 29 30 31 35 40 41 36 35 33 34 35 34 38 40 43 45 46 43 39 38 36 34 32 30 29
17 17 17 19 22 26 28 32 36 38 37 36 35 33 29 28 26 26 29 32 34 35 37 38 37 35 36 34 32 35 40 42 43 44 43 41 41 41 40 37 35 32 31
17 16 16 18 22 26 30 33 36 37 37 36 36 34 32 29 29 27 27 30 33 35 34 32 33 33 33 33 32 36 38 40 41 41 42 42 42 41 43 43 39 36 33
16 17 17 19 23 25 29 32 35 35 35 35 36 35 34 31 31 29 28 28 29 31 33 33 33 33 32 35 37 37 36 36 38 40 43 43 44 43 44 46 43 41 37
21 20 21 22 24 26 29 31 30 32 34 34 34 35 34 33 32 32 30 30 31 33 34 34 34 33 35 37 38 37 36 33 34 38 39 38 42 44 45 45 45 45 41
24 21 21 23 23 26 30 32 32 32 33 32 31 32 34 35 34 34 34 32 31 33 35 37 36 34 36 37 38 39 37 35 36 38 38 37 38 42 45 48 49 50 46
27 23 21 23 25 27 30 33 33 32 31 29 29 30 32 34 36 37 36 35 36 36 38 40 39 37 36 37 38 38 37 34 34 35 36 34 34 35 38 38 47 53 50
31 25 23 24 26 28 30 33 32 30 29 29 28 30 31 34 37 37 37 37 37 37 36 37 39 38 37 37 39 38 37 36 37 35 32 32 31 31 34 34 37 47 50
30 25 24 26 26 26 29 31 31 29 28 27 28 30 31 33 36 36 37 38 37 35 34 34 34 34 35 36 37 37 38 36 36 32 31 31 29 26 31 38 42 45 49
29 25 23 24 24 25 28 30 31 31 28 26 25 27 30 31 34 34 34 35 35 33 32 33 33 35 36 36 35 33 31 28 27 28 31 28 24 25 24 28 37 42 43
28 27 23 23 24 26 28 29 31 31 30 26 24 25 27 28 30 31 32 32 33 34 35 34 35 34 33 35 36 33 29 27 25 25 23 21 24 25 23 20 25 37 41
26 27 32 30 30 30 29 28 29 31 31 27 23 24 24 24 26 29 30 30 31 31 31 32 35 34 34 35 34 30 29 26 25 26 23 22 24 24 25 28 30 32 35
33 35 39 37 35 33 31 29 27 29 28 28 26 24 22 21 22 23 24 25 27 29 30 31 35 34 33 29 22 26 28 25 23 24 23 23 24 24 22 21 20 25 32
39 42 43 41 38 34 30 27 27 26 25 26 26 24 21 18 15 14 15 19 25 30 30 28 32 32 32 29 25 25 25 23 22 23 22 22 20 18 16 16 19 21 24
54 50 46 44 42 38 33 29 29 27 26 27 25 25 21 14 10 13 14 16 22 27 25 30 32 26 24 25 24 22 21 21 19 18 18 18 17 17 18 19 20 21 23
77 65 50 47 45 41 37 35 31 30 28 28 27 24 22 16 17 14 16 18 21 25 22 25 27 26 28 27 23 20 19 18 17 17 16 16 16 17 19 21 22 23 25
74 62 50 46 43 41 40 39 36 32 29 28 27 23 22 18 17 14 14 17 21 24 29 28 25 23 25 24 19 18 18 16 15 14 14 15 15 15 16 17 19 21 24
72 62 51 51 50 46 41 40 38 35 32 28 28 23 20 18 15 16 14 16 21 25 25 25 24 18 16 15 18 18 16 15 14 13 12 12 12 12 14 16 19 21 23
75 65 57 49 51 52 48 44 41 38 36 32 30 26 20 18 16 17 18 18 17 18 23 25 24 22 19 19 18 16 14 13 12 11 10 11 11 11 12 14 17 19 21
68 67 64 53 49 50 50 47 44 40 39 34 31 29 24 21 18 16 16 16 18 20 20 19 21 23 21 19 17 14 13 12 10 10 9 9 9 10 11 14 15 18 20

GEFSMA_500_meanwind_006.txt.gz
Wind_Speed
32 31 31 32 31 31 32 31 30 27 26 25 25 26 28 30 34 39 40 38 38 38 36 34 31 29 27 28 28 27 27 25 23 21 20 20 21 21 21 20 20 19 17
33 33 31 28 27 27 26 24 22 22 22 22 23 25 26 27 27 29 34 35 35 37 38 37 36 34 31 31 31 29 28 27 25 23 22 21 21 20 21 21 22 22 20
30 30 28 25 24 24 23 22 21 21 22 23 24 25 25 26 26 25 26 27 28 29 33 37 39 40 38 35 33 32 31 30 28 26 24 24 24 24 24 23 23 23 22
27 27 26 25 24 23 23 22 22 22 22 22 23 25 25 26 27 28 28 28 29 29 30 34 38 41 43 40 37 35 34 33 32 31 28 27 26 27 27 27 27 26 25
25 26 27 26 25 24 23 22 19 19 19 21 22 24 25 25 27 29 30 30 31 33 34 34 35 39 43 43 41 39 38 36 35 35 33 31 29 29 28 29 31 31 29
23 23 24 23 22 21 20 17 16 17 19 21 23 25 25 26 26 29 31 31 30 32 35 35 35 36 39 43 43 42 41 40 39 37 36 34 34 33 33 33 33 34 34
22 21 20 17 17 17 16 16 16 17 19 21 23 24 25 26 27 29 32 32 30 30 32 33 34 33 34 39 42 43 44 43 41 39 37 36 37 37 37 36 37 37 36
21 20 18 17 17 17 16 16 16 17 20 22 24 24 23 24 27 29 31 33 32 32 31 30 32 31 31 35 39 43 44 43 41 39 39 38 39 40 38 37 37 37 37
22 20 20 20 19 19 19 18 17 18 20 23 25 25 23 23 26 28 30 32 33 33 32 30 29 30 30 32 33 36 38 37 37 38 38 38 39 38 37 36 36 37 36
22 22 22 22 22 23 23 22 20 19 20 23 25 26 26 25 24 26 30 31 33 33 32 30 27 26 27 27 27 27 29 32 35 37 37 37 36 36 36 35 36 36 35
24 24 25 26 27 28 27 25 24 22 22 23 25 26 26 26 25 25 26 30 32 32 31 29 26 24 23 24 25 25 26 27 29 32 34 34 34 34 33 32 32 34 35
27 26 27 29 31 33 33 30 27 25 24 24 25 26 26 25 24 24 24 27 30 31 30 29 27 26 25 26 26 26 27 27 29 31 32 33 34 33 32 31 31 32 33
33 32 31 32 33 34 34 32 30 28 27 26 25 25 25 24 24 24 25 26 28 30 30 30 29 30 28 26 26 26 27 28 28 28 30 32 33 33 34 33 31 31 30
38 38 37 37 36 35 34 34 32 30 29 27 26 25 24 24 24 24 25 26 28 30 31 31 31 31 30 29 27 26 27 27 28 29 31 33 34 33 34 33 31 30 29
42 42 40 38 38 38 37 35 34 33 30 28 27 26 24 23 23 23 23 25 26 28 31 32 31 30 30 29 28 26 26 26 28 31 32 33 35 35 34 33 32 31 31
50 47 44 40 39 39 39 38 36 34 31 29 28 27 24 22 22 22 22 22 24 26 29 32 31 30 29 29 28 28 26 26 28 30 32 34 34 34 34 34 34 33 32
58 54 50 48 46 43 41 40 37 35 33 31 31 29 26 23 21 20 21 21 21 23 25 28 30 30 30 29 28 28 28 29 30 31 31 31 30 30 29 29 30 30 29
63 59 54 50 51 49 44 41 38 36 33 31 30 30 27 24 21 20 20 20 20 21 23 25 28 29 30 30 30 31 31 31 30 28 26 25 24 23 23 23 23 23 24
68 64 58 52 51 51 48 44 41 38 34 31 29 29 27 24 22 21 20 20 19 19 21 25 27 30 31 32 32 32 32 31 28 26 25 25 25 24 23 23 21 21 21
72 69 64 59 54 53 53 50 46 43 37 32 30 29 27 25 23 22 20 19 18 18 19 23 27 30 32 33 33 32 31 29 28 27 27 26 25 25 23 21 21 20 19
74 72 69 65 61 59 60 58 53 49 42 35 32 31 30 27 25 23 21 19 18 18 18 21 24 28 31 32 31 30 30 29 27 25 26 26 24 22 20 18 17 16 16
81 78 77 74 68 62 61 62 58 53 47 40 35 33 32 30 27 24 23 21 19 18 19 20 21 22 25 27 28 31 32 29 26 24 24 22 20 18 16 14 15 16 16
67 72 76 75 70 65 60 57 57 56 52 45 40 36 33 32 29 26 24 23 20 18 18 19 19 19 20 23 26 28 28 28 25 22 19 17 15 14 13 14 15 16 17
37 45 55 63 65 66 64 57 52 53 53 49 44 40 35 32 30 27 25 24 21 17 16 16 17 17 19 22 23 24 25 24 22 19 16 14 13 12 13 14 15 14 14
28 28 31 38 49 57 63 64 59 54 52 50 47 42 37 34 31 28 27 25 22 18 15 14 15 16 20 22 22 21 21 21 19 17 15 13 13 12 13 13 12 12 12
30 28 26 26 29 39 52 60 63 60 57 54 51 47 42 38 34 31 29 27 24 21 18 16 15 17 20 23 23 21 19 17 16 14 14 13 13 12 11 11 11 11 10

GEFSMA_500_meanwind_012.txt.gz
Wind_Speed
24 22 22 21 22 21 19 18 19 20 21 22 22 23 23 22 22 21 22 23 25 26 28 31 31 29 27 26 25 23 21 19 17 17 16 15 15 16 17 17 18 17 16
23 23 22 22 21 20 18 18 19 19 21 22 23 24 24 24 23 24 24 24 24 24 25 28 32 33 31 30 29 27 26 23 21 20 19 18 18 17 17 17 18 17 17
22 21 20 21 20 19 18 18 19 20 21 22 23 23 24 24 24 25 25 25 25 25 25 26 30 33 33 32 32 31 30 28 26 24 22 21 20 19 19 18 18 18 17
20 19 18 18 19 19 19 19 19 21 21 22 21 20 20 21 22 23 23 24 25 25 25 26 28 31 32 32 33 33 33 32 31 29 27 25 24 22 21 20 20 20 19
18 18 17 17 18 18 18 18 20 20 20 19 17 17 17 18 19 20 21 22 23 24 25 26 27 29 31 31 32 33 34 35 35 34 32 30 28 26 24 24 23 22 22
18 18 17 16 16 16 16 17 17 18 17 16 15 15 15 15 15 16 17 18 19 21 23 25 26 27 29 31 31 32 34 36 37 37 37 35 33 30 28 27 26 25 25
19 18 17 16 15 15 15 15 15 16 16 16 15 15 15 14 13 14 15 16 17 19 22 25 27 27 28 29 29 31 33 34 36 38 40 40 38 35 32 30 29 28 28
19 18 18 17 16 15 15 15 16 17 18 18 17 16 16 15 14 13 13 14 16 18 21 25 28 29 29 28 29 29 30 32 35 37 39 42 42 40 36 33 31 30 30
17 18 18 17 17 16 16 17 17 18 20 20 20 19 18 18 17 16 15 15 15 17 20 23 26 28 28 28 27 27 28 31 32 34 37 42 44 43 39 36 34 32 32
18 18 19 19 19 19 19 19 19 20 21 23 23 22 21 19 19 20 18 16 15 17 18 21 24 26 27 27 27 27 27 29 30 31 33 39 43 43 41 38 36 34 33
20 20 21 22 22 22 22 22 22 23 24 25 26 25 24 22 20 19 21 19 17 17 18 19 21 24 26 26 26 26 26 27 28 29 32 36 41 43 42 39 38 36 34
24 24 24 24 25 25 26 25 25 26 27 27 27 27 26 25 23 20 20 21 20 19 18 19 21 23 25 26 26 26 26 26 27 28 29 32 36 39 39 38 37 35 34
32 30 29 28 29 29 29 29 28 28 29 29 29 29 28 27 25 23 21 20 20 21 20 20 21 23 24 25 27 27 26 25 25 26 26 27 30 32 31 32 33 32 31
42 39 37 36 35 35 34 33 32 31 31 31 31 30 29 29 28 26 25 22 21 22 22 21 21 23 24 25 27 28 28 25 23 22 22 22 22 23 24 26 28 28 28
51 49 47 45 43 42 40 39 37 36 35 34 33 32 31 31 30 29 27 25 23 22 23 22 22 23 24 25 26 27 27 24 21 20 19 19 19 19 21 24 25 26 28
56 56 55 54 52 50 47 45 42 41 40 38 36 35 34 33 32 31 30 28 25 23 23 24 22 22 23 25 26 26 23 21 19 20 20 21 22 23 24 26 27 28 29
61 60 60 59 59 57 54 51 48 46 44 42 40 38 36 35 34 34 32 30 27 24 22 24 22 21 23 25 26 27 26 23 23 23 23 23 24 25 26 28 29 31 31
66 65 64 63 62 61 59 57 53 51 48 46 44 42 40 37 35 34 33 30 28 25 22 22 22 21 22 24 27 29 28 27 26 26 25 25 25 26 27 28 29 30 31
72 71 69 68 66 65 63 60 58 55 53 50 48 44 42 39 36 35 33 31 29 26 23 22 22 21 21 23 25 28 29 28 28 27 26 26 26 26 25 25 25 26 27
69 73 74 72 71 69 66 63 60 57 55 52 49 46 42 41 39 37 34 31 29 27 24 22 22 20 20 21 23 25 27 27 27 27 26 26 25 24 23 23 23 23 22
53 61 68 72 74 73 71 68 64 61 57 53 50 47 43 41 40 38 36 33 30 27 25 23 22 20 18 18 21 23 25 25 26 26 26 25 25 24 23 23 23 22 22
37 41 47 55 64 69 72 72 69 65 61 56 52 48 45 43 42 40 38 35 31 27 24 23 22 20 18 17 19 21 22 23 24 24 25 25 25 24 24 23 23 23 22
33 32 33 36 43 53 62 68 71 69 66 61 55 50 47 44 43 42 40 37 32 28 24 23 22 19 17 16 16 18 19 21 21 23 24 25 25 24 23 23 23 24 24
36 33 31 30 31 35 42 51 60 66 67 64 60 54 50 47 44 43 42 39 35 29 25 23 21 18 16 15 15 17 18 19 20 20 20 21 22 23 22 22 22 22 21
39 36 35 34 32 31 32 37 43 53 60 63 62 58 54 51 46 44 43 41 37 32 26 23 20 17 15 15 15 16 17 18 19 19 19 20 20 20 21 21 21 20 19
42 39 36 35 34 32 31 31 32 38 47 56 60 59 56 54 49 45 44 42 39 34 28 23 19 16 14 14 14 15 15 15 17 19 19 19 20 20 20 20 19 17 16

GEFSMA_500_meanwind_018.txt.gz
Wind_Speed
28 27 25 25 25 25 26 26 25 25 26 26 25 24 24 24 22 19 18 18 17 17 18 20 24 28 30 30 29 27 25 24 23 22 21 19 19 18 17 16 15 13 12
31 28 26 25 26 25 25 25 25 25 25 25 24 24 23 22 21 21 20 19 18 19 19 20 22 24 28 31 32 32 30 27 26 25 24 23 21 20 19 18 17 16 16
31 27 25 25 25 24 24 24 25 26 26 26 25 25 24 24 23 22 21 21 20 20 20 21 22 23 25 27 30 34 33 31 29 28 27 26 25 23 22 20 19 18 18
30 27 24 23 23 24 24 24 25 26 26 26 26 25 24 23 22 22 21 21 20 20 21 21 23 24 24 25 26 30 34 34 32 31 30 30 29 27 26 24 22 20 19
29 25 22 22 23 24 24 24 25 25 26 26 26 25 24 23 22 21 20 19 19 19 20 20 21 23 24 25 25 26 30 34 34 33 33 32 31 30 29 28 26 24 22
25 23 22 23 24 24 24 24 24 25 25 25 25 25 24 22 21 19 18 17 17 17 17 18 19 21 23 25 25 26 27 29 32 34 35 34 34 33 32 30 29 27 25
23 22 22 24 24 25 24 24 24 24 24 24 24 24 23 22 21 19 18 16 15 15 15 16 17 19 21 23 25 26 26 27 28 31 34 36 36 36 35 33 31 30 29
21 21 23 24 25 26 25 25 25 24 24 24 24 23 23 22 21 19 18 16 15 14 14 14 15 17 19 21 22 24 26 27 28 28 30 34 37 38 37 35 34 33 32
21 22 23 25 26 27 27 27 26 25 25 24 24 24 23 23 22 20 19 18 16 15 14 13 14 15 17 19 21 23 25 26 27 27 28 30 33 36 38 37 36 36 35
24 25 26 26 27 28 29 29 28 28 27 26 26 25 25 25 24 23 21 20 18 17 16 14 14 15 16 18 20 23 24 26 27 28 28 29 31 33 36 37 37 38 38
28 29 30 30 30 31 31 32 31 31 30 29 29 28 27 26 26 26 24 21 19 18 17 16 15 15 16 18 20 22 24 26 27 29 29 29 30 31 33 35 35 36 39
35 34 34 34 35 35 35 35 35 34 33 32 32 31 30 29 28 28 27 24 22 20 19 18 17 17 17 18 20 21 23 25 27 28 29 29 30 32 32 34 35 34 36
42 41 40 40 40 39 39 39 38 37 37 36 35 34 33 32 30 30 29 27 25 23 21 20 19 19 18 18 20 21 22 24 26 27 28 28 29 30 32 33 35 35 36
48 48 48 47 46 45 44 43 42 41 41 40 39 38 37 35 34 32 31 29 28 26 24 22 21 21 20 19 20 21 22 23 24 26 27 27 28 29 32 33 35 36 37
54 54 54 53 53 52 50 49 47 46 45 44 44 43 41 40 38 36 34 32 30 28 27 24 23 23 22 21 20 21 22 22 23 25 26 26 27 27 29 33 35 37 38
59 60 60 59 59 58 58 56 54 52 50 49 48 47 46 44 42 40 37 34 32 30 29 27 25 24 23 22 21 21 21 22 23 24 25 26 26 27 27 29 31 32 34
58 61 64 65 65 65 64 63 62 59 57 55 53 52 50 49 47 44 41 37 34 32 30 29 27 26 25 23 21 21 21 21 22 23 24 25 26 26 26 25 25 26 27
55 58 61 65 68 70 70 68 67 65 64 62 60 57 55 53 51 47 44 41 37 34 32 30 29 27 25 23 22 21 21 21 22 23 24 24 25 25 25 25 24 24 24
54 56 58 62 65 69 73 74 73 71 69 67 65 63 60 57 55 52 48 44 40 37 34 32 30 28 26 24 22 21 20 20 21 23 25 25 25 24 24 23 23 22 23
52 53 54 56 59 63 67 72 76 76 74 72 70 68 64 61 58 56 52 48 44 40 35 33 31 29 27 24 22 21 20 19 20 22 25 26 26 25 24 23 23 23 23
51 51 51 52 53 55 58 62 68 74 77 76 74 71 69 65 62 59 55 52 48 43 38 34 32 30 27 26 24 22 20 19 20 21 24 25 26 26 25 24 23 23 23
48 49 49 50 50 49 50 51 55 61 70 75 76 75 73 69 65 61 58 54 50 45 40 37 34 31 28 26 24 22 20 19 20 21 23 25 26 26 26 26 25 24 23
44 46 46 47 47 46 45 45 46 48 54 64 72 76 76 72 67 63 59 55 52 47 43 39 35 32 30 27 25 22 20 20 20 22 23 24 25 25 26 26 25 25 24
40 42 45 45 46 44 42 41 40 41 42 47 57 67 74 74 69 64 59 56 53 48 44 41 37 34 31 28 25 22 20 20 20 21 22 23 24 24 25 25 25 25 25
36 39 43 44 44 42 40 38 36 35 35 37 42 52 62 70 69 65 60 56 52 49 46 42 39 36 32 28 25 22 19 18 19 20 21 22 22 23 24 24 25 25 25
32 35 39 42 43 41 40 37 34 32 30 31 34 40 49 59 64 64 60 56 52 49 46 43 39 36 32 29 25 22 19 19 19 20 20 21 21 21 22 22 22 23 23

GEFSMA_500_meanwind_024.txt.gz
Wind_Speed
44 43 43 42 41 40 38 36 35 33 31 30 29 27 26 25 24 24 23 22 23 23 23 24 23 25 27 29 29 28 28 27 25 24 23 22 21 20 19 18 17 16 14
44 45 44 44 43 41 40 38 36 35 33 31 29 28 26 26 25 24 24 21 21 21 22 22 21 22 24 27 31 32 31 31 30 28 26 25 24 23 22 21 20 19 17
42 44 44 44 44 44 42 40 38 36 33 31 30 29 28 26 26 25 25 24 22 22 21 21 21 21 21 23 27 30 31 32 33 32 31 29 27 25 25 24 23 22 20
39 42 45 45 46 45 43 40 38 36 33 32 31 30 29 28 28 27 26 25 24 23 23 22 22 22 22 23 24 27 29 31 33 34 35 33 31 29 28 27 26 24 23
35 39 41 43 45 44 42 40 39 37 35 34 32 31 30 29 29 29 27 26 25 24 23 22 23 23 23 24 24 25 27 28 29 33 36 37 35 33 31 30 29 27 26
29 33 37 39 42 43 42 40 40 38 37 35 33 32 31 31 30 29 28 27 25 23 22 22 21 22 23 23 24 25 26 27 27 29 32 37 37 36 35 33 32 30 28
27 27 32 36 40 42 41 40 40 39 37 36 34 33 32 32 31 30 29 27 26 24 22 20 19 19 20 21 22 23 24 25 26 27 29 33 37 37 37 36 35 34 32
26 24 28 34 39 40 41 41 39 38 37 36 34 33 32 31 30 30 29 27 26 23 21 19 17 16 17 18 19 21 22 23 24 26 28 30 34 36 37 37 37 36 35
27 26 26 29 33 36 38 40 39 37 36 35 34 32 31 31 30 29 29 28 26 23 21 19 17 16 16 16 17 18 19 20 22 24 26 27 29 33 33 35 38 39 38
31 29 28 28 28 30 33 35 36 35 35 35 34 33 32 31 30 30 29 28 27 25 22 20 19 17 16 16 16 16 17 18 19 21 23 25 27 29 31 33 35 39 41
35 34 33 32 31 31 32 34 34 34 35 35 35 34 33 32 32 32 31 30 28 27 24 23 20 18 17 16 16 15 15 16 17 19 21 23 25 27 29 31 33 34 38
38 38 38 37 36 36 36 37 37 37 36 37 37 37 36 35 35 34 34 32 31 29 27 25 23 21 19 18 16 14 14 15 16 18 20 22 24 26 28 29 31 32 34
41 41 42 42 42 42 42 42 41 41 40 40 40 40 39 38 38 37 36 35 34 32 30 28 26 23 21 19 18 17 15 15 16 17 19 21 23 25 27 29 29 31 33
44 45 46 47 47 48 48 48 48 46 45 44 43 42 42 42 41 41 39 38 37 35 34 31 28 26 23 21 20 19 18 17 17 18 19 21 23 25 27 29 30 30 31
46 48 49 51 53 54 55 55 55 53 52 49 48 47 46 45 45 44 43 41 40 39 37 35 32 29 26 24 22 21 20 19 19 20 20 21 23 25 27 28 29 30 31
50 51 52 54 56 58 59 61 61 61 60 57 54 52 51 49 49 48 46 45 44 42 40 38 36 32 30 27 25 23 22 21 21 21 22 22 23 24 26 28 29 29 29
55 56 57 58 58 60 62 64 66 67 67 65 62 58 56 55 53 51 50 48 47 45 43 41 39 36 33 30 27 25 23 23 23 23 23 23 23 24 26 27 28 29 29
58 59 60 61 63 63 64 66 68 70 71 71 70 66 62 59 57 55 53 52 50 49 46 44 42 39 36 33 30 27 25 24 24 24 24 24 24 24 26 27 27 28 28
59 59 60 62 64 65 67 68 70 72 73 74 75 74 70 65 61 59 58 55 53 52 50 47 44 41 38 35 32 29 27 26 25 25 25 25 24 24 25 26 26 26 26
59 58 59 61 63 64 66 67 70 73 75 76 76 77 77 73 67 62 60 59 57 54 52 50 47 44 41 38 34 32 29 27 26 26 25 25 25 25 26 26 25 25 25
57 57 58 59 61 63 64 65 67 70 73 76 77 78 79 79 74 69 62 60 60 58 55 53 50 47 43 40 37 34 31 29 28 26 25 25 25 25 26 26 25 24 24
52 51 52 53 56 59 61 62 64 66 68 71 74 76 78 80 79 76 69 63 59 58 57 55 52 49 46 43 39 36 33 30 29 28 27 26 26 25 25 26 25 25 24
46 45 45 46 49 52 54 57 60 61 63 64 67 71 75 78 79 78 77 69 62 57 57 56 55 52 48 45 42 38 35 32 30 29 28 27 26 26 26 26 26 25 24
39 37 36 37 40 44 48 50 53 55 56 57 59 62 68 73 76 77 77 75 69 61 56 56 54 52 50 48 44 41 37 33 31 29 28 27 26 26 25 26 26 26 25
33 30 29 30 33 36 41 44 44 46 48 49 52 54 58 64 71 75 75 74 72 69 61 56 54 53 51 49 46 42 38 35 32 30 28 27 26 26 25 25 25 25 25
29 25 22 23 25 29 34 38 39 39 42 43 45 46 50 54 61 68 71 71 72 71 67 61 56 52 51 49 47 43 39 36 33 30 29 27 27 26 25 24 24 24 24

GEFSMA_500_meanwind_030.txt.gz
Wind_Speed
33 33 34 34 34 35 36 37 37 35 35 35 35 34 32 32 32 31 29 26 27 28 26 25 25 25 24 23 22 23 24 25 24 24 22 21 19 18 17 16 14 12 11
34 34 34 35 36 37 37 37 37 36 36 35 35 34 32 32 32 31 30 27 26 27 26 24 24 23 23 23 22 22 23 25 26 26 25 24 22 21 19 18 16 15 13
35 35 35 36 37 37 37 37 36 37 37 36 35 35 33 32 32 31 31 29 27 27 26 24 23 22 22 21 20 20 21 24 26 28 28 26 25 24 22 21 19 18 16
34 34 35 36 36 36 36 37 37 37 37 38 36 35 34 33 32 32 32 30 28 28 28 26 24 22 21 20 19 19 19 21 24 26 28 28 28 26 25 24 23 22 20
35 35 35 36 36 36 34 35 35 35 36 37 36 36 35 34 33 33 32 31 30 29 28 26 25 23 22 21 19 19 19 19 20 23 26 28 30 30 29 28 27 26 24
36 36 35 35 34 34 33 33 34 35 36 36 37 36 36 35 34 33 33 32 31 30 28 26 25 24 23 22 21 20 20 20 20 21 23 25 27 28 30 31 31 29 28
36 36 36 35 34 32 31 32 33 35 35 35 36 35 35 35 34 34 33 32 31 29 27 26 26 24 23 22 21 21 20 20 21 21 22 23 24 26 27 31 33 33 31
38 38 37 36 35 33 32 31 31 31 34 36 35 35 35 36 36 36 34 33 32 30 27 26 25 23 22 21 21 20 20 19 19 20 20 22 22 23 25 26 31 34 34
40 40 39 37 35 34 32 31 31 31 32 34 34 36 37 38 36 36 34 34 33 31 28 27 25 24 23 21 20 19 18 17 17 17 18 19 20 21 22 23 25 29 32
41 40 39 37 35 35 34 33 32 32 31 33 35 36 38 38 37 36 35 35 33 31 30 29 27 25 24 22 21 19 18 16 15 15 15 16 17 17 19 21 22 24 28
40 39 37 36 35 34 34 33 33 33 32 33 34 35 36 38 39 36 33 34 33 32 30 29 27 26 25 23 21 19 18 16 15 14 14 14 14 15 16 17 19 21 24
38 37 37 36 35 35 35 34 34 33 33 33 33 34 34 35 38 39 37 34 33 32 31 30 29 27 26 24 22 21 19 16 14 13 12 12 12 13 13 14 16 18 20
37 37 37 36 36 36 36 36 36 36 36 36 35 34 34 33 36 39 39 38 35 33 32 32 31 30 28 26 25 22 19 17 15 13 12 11 11 11 12 13 14 15 17
38 39 39 39 39 39 39 39 39 40 40 40 38 37 36 35 37 39 39 39 37 36 34 33 33 32 30 29 27 24 22 19 16 14 12 10 10 9 10 11 12 14 16
41 42 43 44 44 44 44 44 43 43 43 44 44 43 42 40 39 40 41 40 39 37 37 36 35 35 33 31 29 26 25 22 19 17 14 13 11 11 10 10 11 12 14
43 44 46 47 48 49 50 50 50 49 48 48 48 48 47 44 42 41 41 41 41 40 39 38 37 37 36 34 31 29 27 25 22 19 16 15 13 12 11 11 11 12 13
43 45 47 49 51 52 54 54 54 53 53 53 53 52 52 50 47 45 44 43 43 42 42 41 40 38 38 36 34 32 30 27 24 21 19 16 14 14 13 12 12 12 13
45 46 48 50 53 55 56 57 58 58 58 57 57 57 57 56 53 51 48 45 45 45 44 43 42 40 40 39 37 35 32 30 27 24 21 18 16 14 14 13 13 13 13
46 48 50 52 53 55 57 59 61 61 62 62 62 61 61 61 60 57 54 51 48 47 46 46 44 43 42 41 40 38 35 32 29 26 24 21 18 16 15 14 14 14 14
48 49 50 51 53 55 57 59 60 61 62 63 63 63 64 64 64 63 60 57 54 51 48 48 47 46 44 43 42 40 38 35 33 30 26 23 20 18 16 15 15 15 15
49 49 50 51 52 52 53 55 57 58 58 60 61 61 65 67 67 67 66 62 60 57 54 51 49 48 47 45 43 42 41 39 36 33 29 26 22 20 18 16 15 15 15
48 49 49 48 47 47 47 49 52 54 56 58 59 59 61 66 68 69 69 67 64 61 58 55 52 51 49 47 45 44 43 42 39 36 32 28 25 22 20 18 17 16 16
47 47 46 44 43 43 43 45 46 48 50 53 55 57 58 60 64 68 70 70 68 65 62 59 55 52 49 49 48 46 45 44 42 39 35 31 28 25 22 20 19 17 17
45 44 42 41 40 39 40 41 41 42 43 46 50 52 54 56 59 63 66 68 68 67 64 61 58 55 52 50 49 48 47 45 44 41 37 34 30 27 24 22 20 19 18
43 41 39 38 37 36 35 33 32 33 34 38 42 46 48 50 53 57 60 63 65 65 64 62 61 58 54 51 49 49 47 45 44 42 39 36 33 29 26 24 22 20 19
41 39 37 36 34 31 28 25 23 23 25 30 35 40 44 45 47 50 53 56 60 62 62 61 60 61 57 51 48 49 47 45 45 43 40 38 35 32 28 26 23 21 20

GEFSMA_500_meanwind_036.txt.gz
Wind_Speed
32 32 32 32 32 32 32 31 31 30 30 29 28 27 28 29 31 32 31 29 28 28 28 27 27 26 24 23 22 21 20 19 19 19 19 18 17 16 15 14 13 11 9
32 32 33 32 33 33 33 32 31 31 31 31 31 29 29 30 30 32 33 32 31 30 29 29 29 28 26 25 24 23 22 21 21 22 22 21 20 18 17 15 14 13 11
33 33 33 33 33 33 34 33 33 32 32 33 32 30 30 31 31 33 34 35 33 31 30 30 29 29 28 26 25 24 24 22 21 22 24 24 22 21 20 18 16 15 14
34 34 34 33 34 34 34 34 34 32 32 32 32 31 30 32 32 33 35 35 33 32 31 30 30 29 28 27 26 25 24 23 22 22 24 25 25 24 22 21 19 18 16
34 34 34 34 34 34 34 34 34 33 32 32 31 31 31 32 33 34 34 35 35 34 33 30 31 29 29 28 27 26 25 24 23 22 24 26 26 26 25 24 22 21 20
35 35 35 35 35 35 35 34 34 34 33 32 32 32 32 32 32 33 33 35 36 36 35 33 33 31 31 31 29 27 26 25 24 23 23 24 27 27 27 26 25 24 23
36 36 36 36 36 37 36 36 35 34 33 33 33 32 33 32 32 32 33 35 35 35 35 35 34 33 33 34 32 30 28 27 25 24 23 24 25 27 28 28 27 27 26
37 36 36 37 37 37 38 38 37 36 35 33 32 30 31 31 32 32 32 34 35 37 36 35 36 34 36 36 34 33 31 29 28 26 25 25 25 26 28 28 28 28 28
36 35 35 35 35 35 36 36 36 36 35 34 32 31 30 30 31 32 33 34 35 36 36 36 36 34 35 36 35 34 32 31 30 28 27 27 27 27 28 28 29 28 28
34 34 33 32 32 33 33 34 34 34 34 33 33 32 31 30 30 31 32 33 34 35 37 36 35 35 34 35 36 35 34 32 31 30 29 28 28 28 28 29 29 28 28
34 34 32 31 31 31 31 31 31 32 32 32 32 31 31 30 30 30 31 32 34 35 36 36 36 36 36 35 36 36 35 34 32 31 30 29 29 28 28 28 28 28 27
35 35 34 32 31 31 31 31 31 31 32 32 32 32 32 31 30 30 31 32 34 34 36 37 36 36 37 35 35 36 36 35 33 32 30 29 28 28 27 27 27 26 26
37 37 36 35 34 32 32 32 32 32 32 32 32 32 32 32 32 31 31 33 33 34 35 36 37 37 37 36 36 37 37 36 34 32 30 29 28 27 27 26 25 25 24
38 38 39 38 37 36 34 34 34 34 33 33 34 34 33 33 33 32 31 31 33 34 35 36 36 37 37 37 38 39 38 37 35 33 31 29 27 26 26 25 24 23 22
39 39 40 40 40 39 38 37 36 37 36 36 36 36 36 35 35 34 33 31 32 34 35 35 36 37 39 40 40 40 40 38 36 34 31 29 27 26 25 24 23 23 21
40 40 40 41 41 41 40 40 39 39 39 39 39 39 39 39 38 37 36 35 34 35 35 36 36 38 41 42 42 42 41 40 37 35 33 30 28 26 25 24 23 22 21
40 40 40 40 40 41 41 41 41 41 41 41 42 42 42 43 42 41 39 38 37 35 35 37 37 38 41 43 44 44 43 41 39 37 35 32 30 27 26 24 23 21 20
40 39 39 39 40 41 42 43 43 44 44 44 44 45 45 46 46 45 44 42 41 39 37 36 38 39 42 44 46 45 44 43 41 39 37 34 31 29 27 24 23 21 19
39 39 39 39 40 41 42 43 45 45 46 46 47 47 48 49 48 49 49 48 46 44 41 39 39 41 43 45 47 47 46 45 43 42 40 37 34 31 28 26 24 22 20
38 38 39 39 40 41 42 43 44 46 47 47 48 49 50 51 51 52 53 53 51 49 47 44 42 42 44 46 47 48 47 46 45 44 42 39 36 33 30 28 25 23 21
38 38 39 39 40 41 42 43 44 46 47 48 49 50 52 53 54 55 56 57 56 54 52 49 47 44 46 47 48 48 48 48 47 45 44 42 39 36 32 29 26 24 22
39 39 40 40 40 40 41 42 43 44 45 46 48 50 52 53 55 57 59 60 60 59 57 55 53 48 47 48 49 50 49 49 48 47 46 44 41 38 35 31 28 25 23
39 39 39 39 39 39 40 40 41 42 42 44 46 48 50 52 54 57 60 62 63 63 62 60 58 54 50 50 49 50 50 50 50 50 49 46 44 41 37 33 30 27 24
40 39 39 38 38 38 39 40 40 40 41 42 44 45 47 49 52 55 59 63 65 66 65 64 62 60 57 54 51 51 52 52 53 53 51 48 46 43 40 36 32 28 25
40 39 39 38 37 38 39 38 38 38 38 39 41 42 44 47 49 52 56 60 65 67 69 68 67 66 62 58 55 54 54 53 53 53 52 49 47 45 42 38 34 31 28
40 39 38 38 37 37 36 35 34 34 35 36 36 38 41 43 46 50 53 57 61 66 69 71 70 69 66 63 58 54 53 53 53 52 51 50 49 47 44 41 37 34 30

GEFSMA_500_meanwind_042.txt.gz
Wind_Speed
27 29 30 30 30 30 30 29 29 30 30 30 30 28 27 26 25 25 26 30 32 32 31 29 28 26 25 23 22 20 18 18 17 17 17 16 16 16 15 14 12 10 8
30 30 31 31 31 31 31 31 30 30 30 30 29 29 29 28 27 26 26 29 32 34 34 32 31 30 29 27 25 23 22 20 20 19 19 19 18 17 16 15 14 13 11
30 30 31 32 32 32 32 32 32 31 31 30 29 29 29 29 28 28 28 28 31 34 35 35 34 33 32 30 29 27 25 24 23 22 21 21 21 20 19 17 16 15 13
31 31 32 32 32 32 32 32 32 31 31 30 30 30 29 29 30 30 29 29 30 33 35 36 35 34 34 33 31 30 28 26 25 24 24 23 23 23 22 20 19 17 16
31 32 32 32 33 33 33 33 32 32 32 31 30 30 30 30 30 31 30 30 30 32 35 37 36 35 35 35 33 32 30 29 27 26 25 24 25 25 24 23 22 20 19
31 32 32 33 33 33 34 34 34 33 33 33 32 31 31 31 30 31 31 30 30 32 34 37 38 37 37 36 35 35 33 31 29 28 27 26 25 26 27 26 25 23 22
31 32 32 33 34 34 35 35 35 35 35 34 34 33 33 33 32 31 31 30 30 32 34 36 37 38 38 38 36 36 35 33 32 30 29 28 27 27 28 28 28 26 25
30 31 31 32 33 33 34 34 34 35 35 35 35 34 33 33 33 33 32 31 31 32 33 35 37 37 39 39 38 37 36 35 35 32 30 29 28 28 28 29 30 29 28
29 30 30 31 32 32 33 33 34 34 34 35 35 34 34 34 34 33 32 31 31 33 34 35 36 37 40 40 40 39 39 37 36 34 32 31 30 29 28 29 30 31 30
29 29 29 30 30 31 32 32 33 33 33 34 34 34 34 34 34 34 34 33 32 33 34 35 36 36 39 41 41 41 41 39 37 36 35 33 32 30 29 28 30 31 30
29 29 29 30 30 31 32 32 32 32 32 33 34 34 34 34 34 34 34 35 33 34 34 35 36 37 39 41 42 42 42 41 40 39 38 36 34 32 31 30 30 31 31
29 30 31 32 32 33 33 34 34 34 34 34 34 34 34 34 34 34 34 35 35 34 35 36 37 38 39 41 42 43 44 43 42 41 40 38 37 35 33 32 31 31 31
31 32 33 34 34 35 36 36 36 36 36 35 35 35 35 35 34 34 33 34 35 35 36 37 37 38 39 41 43 44 44 44 43 43 42 41 39 38 35 34 33 32 31
32 34 35 36 36 37 37 37 38 38 38 37 37 37 37 36 36 35 34 34 35 36 37 37 37 37 39 41 43 44 44 44 43 44 43 43 42 40 37 35 34 33 32
34 35 37 37 38 38 38 38 38 39 38 39 39 39 39 39 38 37 36 36 35 36 36 37 38 38 39 42 44 45 44 44 44 44 43 43 43 41 39 37 35 34 33
36 37 37 38 39 39 39 39 39 39 39 39 39 40 40 41 41 40 39 38 38 38 38 38 39 40 40 42 44 45 46 45 45 45 44 44 43 42 39 37 35 34 33
38 38 38 38 39 39 38 38 38 38 38 38 38 39 40 41 42 42 42 41 40 40 39 40 40 41 40 41 43 44 46 47 47 46 46 45 44 43 40 37 35 34 33
40 40 39 39 38 38 37 37 37 37 37 37 38 38 39 41 42 43 43 43 43 43 42 42 42 41 40 40 43 43 45 48 48 47 46 45 44 43 40 38 36 35 33
42 42 41 40 39 37 37 36 36 36 36 36 37 38 39 41 42 44 45 45 45 45 45 45 44 43 42 41 42 44 46 48 49 49 47 46 45 43 41 39 37 35 33
44 43 42 41 39 37 36 36 35 35 36 36 37 37 39 40 42 44 45 46 47 48 48 47 47 46 44 43 43 45 45 48 50 50 48 47 46 44 41 40 39 36 34
45 44 43 41 39 38 37 37 36 35 35 36 37 38 39 40 42 45 46 47 49 50 50 50 50 49 47 45 44 46 46 48 50 51 49 48 47 45 43 41 39 37 35
46 45 43 41 40 39 38 37 36 35 35 35 36 37 39 40 42 44 46 49 50 51 52 53 53 52 51 48 46 47 47 48 50 51 49 49 48 46 44 43 41 39 37
46 45 43 41 40 39 38 37 36 34 35 35 36 37 38 39 41 43 45 48 50 52 54 55 56 55 54 52 49 47 47 48 50 51 51 50 49 47 46 44 42 40 38
46 44 42 41 40 39 38 37 36 35 35 35 36 37 38 39 40 41 44 47 50 52 55 56 57 58 57 56 53 49 48 48 50 52 53 52 51 49 47 45 44 42 39
45 44 42 41 40 39 38 37 36 35 34 34 35 36 37 38 40 41 43 45 48 52 55 58 59 59 59 58 57 53 51 51 50 52 53 52 51 50 48 46 45 43 41
44 43 42 40 39 39 38 37 36 34 33 33 33 34 35 36 38 40 41 44 47 50 54 58 61 62 61 60 59 56 54 52 51 53 53 53 52 51 49 47 46 44 42

GEFSMA_500_meanwind_048.txt.gz
Wind_Speed
21 22 22 22 23 23 24 24 24 24 24 24 24 23 22 22 22 22 21 22 23 25 28 32 32 30 29 27 26 24 23 21 21 20 20 19 19 18 16 15 13 10 9
22 23 23 24 24 25 26 26 27 27 26 26 26 25 24 24 23 23 23 23 24 25 27 31 34 33 32 31 29 28 26 25 23 22 21 21 20 20 19 17 15 13 11
23 24 24 25 25 26 27 27 28 28 28 27 27 27 26 25 25 25 25 25 25 25 26 30 34 36 35 34 33 32 30 28 27 25 24 23 22 21 20 19 18 16 14
23 24 24 25 25 26 27 27 28 28 28 28 28 28 27 27 27 27 27 26 26 27 26 29 33 36 37 37 36 35 34 32 30 29 27 26 24 23 22 21 20 18 17
22 22 23 24 25 25 26 26 27 27 28 28 29 29 29 28 28 28 28 28 28 28 29 28 32 35 38 39 39 38 37 36 34 32 30 29 27 26 24 23 22 20 19
21 22 22 23 24 24 24 25 25 26 27 28 28 29 30 30 30 30 30 30 30 30 31 30 31 35 38 40 41 41 40 39 37 36 34 32 30 29 27 26 25 24 22
21 22 22 22 23 23 23 24 25 25 26 27 28 29 29 31 32 32 33 33 32 32 32 33 32 34 38 40 41 42 43 42 41 39 37 35 33 31 30 29 28 27 25
21 21 22 22 22 23 23 23 24 24 25 25 27 28 29 30 31 32 33 34 35 35 34 34 34 35 37 40 42 43 45 45 43 42 40 38 36 34 32 31 30 29 28
20 20 20 21 21 22 23 23 24 24 25 26 26 27 28 30 31 32 33 34 35 36 36 36 36 36 37 40 42 43 45 46 46 44 43 41 39 36 35 33 32 31 30
18 18 18 19 20 21 22 23 24 25 26 27 27 27 28 29 31 32 33 34 35 36 37 38 37 37 38 39 42 44 45 47 47 45 44 43 41 39 36 34 33 32 31
17 18 18 19 20 21 22 23 24 26 27 28 29 29 29 30 31 32 33 34 35 36 37 38 38 38 38 40 41 44 45 47 47 46 45 44 43 42 38 37 34 33 32
17 18 19 20 21 22 23 24 26 27 28 30 31 32 32 32 33 33 34 35 36 37 38 39 40 40 40 41 42 43 46 47 47 46 46 45 45 44 42 40 37 35 33
20 20 21 21 22 23 24 26 27 29 30 31 33 34 35 35 35 36 36 36 37 38 39 39 40 41 41 41 42 43 45 47 47 47 47 46 46 44 44 41 39 37 35
23 23 23 24 25 26 27 28 29 30 31 32 34 35 37 38 38 38 39 38 38 39 39 40 40 41 43 42 42 43 46 47 47 47 47 47 47 45 44 43 41 39 37
25 26 27 27 28 29 29 30 31 31 33 34 35 36 38 39 39 40 41 41 41 40 40 41 41 41 43 44 45 44 46 47 47 47 47 48 48 47 46 45 43 41 39
27 28 29 30 31 32 32 33 33 33 34 35 35 36 37 39 40 40 41 42 42 42 41 42 41 42 43 44 45 45 45 46 47 46 47 48 49 49 48 46 44 43 40
30 31 33 33 34 35 35 35 35 35 35 35 36 36 37 38 38 40 41 42 43 43 43 43 43 43 43 43 44 45 46 46 46 46 47 48 49 50 50 48 46 44 42
33 34 36 36 37 38 38 37 37 36 35 35 36 36 36 37 37 39 40 41 42 43 44 44 45 45 45 44 44 45 46 47 45 46 47 49 49 50 50 49 48 45 44
36 38 39 40 40 40 40 39 37 36 35 35 35 35 35 35 36 37 39 40 41 43 43 44 46 46 46 45 45 45 46 46 45 46 47 49 50 50 50 50 50 47 46
39 40 41 42 42 42 41 39 37 37 36 35 35 34 34 34 35 36 37 39 40 42 43 44 45 47 46 46 46 46 46 46 46 45 46 48 50 51 51 51 50 48 47
42 43 44 44 43 42 41 39 37 36 36 35 35 34 34 34 34 35 36 37 39 40 42 44 45 46 48 47 47 46 46 46 46 46 46 47 48 50 52 52 52 50 48
44 45 45 44 43 42 40 39 37 36 35 35 34 34 34 33 34 35 36 37 39 40 42 44 45 47 48 48 48 48 46 45 44 45 45 46 47 49 51 53 52 51 49
45 45 45 44 42 41 40 38 37 35 35 34 33 33 33 33 33 34 35 37 38 40 42 44 45 47 49 50 50 50 49 47 45 44 45 46 46 47 49 51 53 52 51
46 46 45 43 41 40 38 37 35 34 34 33 32 32 32 33 33 33 34 35 37 39 41 43 45 47 50 51 51 51 50 49 46 45 45 45 45 46 48 50 52 52 51
47 46 44 42 39 38 37 35 34 33 32 32 32 31 31 32 32 32 33 34 36 39 42 44 45 48 50 51 52 52 51 51 48 46 45 44 45 45 46 47 49 51 49
47 45 43 41 38 37 36 35 33 32 32 31 31 31 31 31 32 32 33 34 35 38 41 44 46 47 50 52 53 53 53 52 51 49 48 45 44 43 44 47 48 51 51

GEFSMA_500_meanwind_054.txt.gz
Wind_Speed
17 17 18 18 18 18 19 20 21 21 21 21 21 19 18 18 18 18 18 18 18 18 20 22 23 25 25 24 23 21 19 19 18 17 17 16 15 14 12 11 9 7 5
18 18 18 19 19 19 19 20 20 21 22 22 21 20 20 20 20 21 21 20 20 19 20 23 24 25 28 28 27 25 23 22 21 20 19 19 18 16 15 13 11 9 7
19 20 19 20 20 20 21 21 21 21 22 22 22 22 21 21 21 21 22 22 22 22 22 23 25 26 28 30 30 29 28 26 24 23 22 21 20 19 18 16 15 12 10
20 20 20 20 20 21 20 21 21 21 22 23 23 23 23 22 23 23 23 24 23 23 24 24 25 27 28 30 32 33 31 30 28 27 25 24 23 22 21 19 18 16 14
20 20 20 20 21 21 21 21 21 22 22 23 23 23 23 23 24 25 25 26 25 25 25 25 26 27 28 30 32 35 35 33 32 30 29 27 26 24 23 22 20 19 17
19 20 20 20 21 21 20 21 21 21 22 22 22 22 23 23 24 25 26 26 27 27 27 27 27 27 27 29 32 36 37 36 35 34 32 31 29 27 26 24 23 21 20
17 18 18 18 19 19 19 20 20 21 21 21 22 22 23 23 24 25 26 27 27 28 29 29 29 29 29 29 30 35 38 38 38 37 36 35 33 31 29 28 26 24 22
16 16 16 17 17 17 17 18 18 19 20 21 21 22 22 23 23 24 26 27 28 29 30 31 31 32 31 32 30 33 38 40 40 39 39 38 37 35 33 31 29 27 26
15 15 16 16 16 16 16 17 17 18 19 20 21 21 22 23 24 25 26 27 28 29 30 31 32 33 34 33 33 33 36 40 42 42 42 41 41 39 37 35 33 31 29
16 16 16 16 16 16 17 17 17 18 19 20 20 21 22 23 24 25 26 27 28 29 30 31 32 34 35 35 35 35 36 38 42 43 43 43 43 43 41 39 37 35 32
16 17 17 18 18 18 18 19 19 20 20 21 22 22 23 24 25 26 27 28 28 30 31 32 33 34 35 36 37 36 37 38 41 43 43 43 44 45 44 42 40 38 36
17 18 19 19 20 20 20 21 21 22 23 24 24 25 25 26 27 28 29 30 31 31 31 32 34 35 35 36 38 38 38 39 41 44 45 45 45 46 46 45 43 41 39
19 19 20 20 21 22 22 23 24 25 25 26 27 28 28 28 29 30 31 31 32 33 34 34 35 36 36 36 38 39 40 40 42 43 44 46 46 47 47 47 45 44 42
20 20 21 22 23 24 25 26 26 27 28 29 30 30 31 32 32 33 33 34 34 35 36 37 37 38 38 38 38 39 40 41 42 44 44 45 47 47 48 48 47 46 45
21 21 23 24 25 26 27 28 29 30 30 31 32 33 34 35 35 36 36 37 37 37 37 39 40 40 40 40 40 40 41 42 43 44 45 45 46 47 49 49 48 47 47
22 24 25 26 28 29 30 31 32 32 33 34 35 35 36 37 38 38 39 39 39 39 39 40 41 42 42 42 42 42 42 43 44 45 45 46 46 46 48 49 49 48 47
24 26 27 29 30 31 32 33 34 35 36 37 37 38 38 39 39 40 40 40 41 41 41 40 42 43 43 43 44 44 44 44 44 45 46 47 48 47 47 48 50 49 48
26 27 29 31 32 33 34 35 36 37 38 38 39 39 39 40 39 40 40 40 41 41 41 41 42 43 44 45 45 45 46 45 45 45 46 48 48 48 48 47 48 49 49
29 30 32 33 34 35 36 37 38 39 39 39 40 40 40 39 39 39 39 40 40 41 41 41 41 43 44 45 45 45 46 46 45 45 46 47 47 48 48 48 48 48 49
32 33 34 35 36 37 38 39 40 41 41 40 40 39 39 38 37 37 38 38 39 40 40 40 41 41 43 44 45 45 45 46 46 46 46 47 46 47 48 47 48 48 48
34 35 36 37 38 40 40 41 42 42 41 40 39 38 37 36 36 36 36 36 37 38 38 39 39 40 41 42 44 45 45 45 45 45 45 45 46 46 47 47 48 48 49
37 38 38 39 41 42 42 42 42 42 41 39 38 37 36 35 35 34 34 35 35 36 37 38 38 38 39 40 42 43 44 44 43 44 44 44 45 46 46 46 48 48 48
39 40 41 42 43 44 43 43 43 42 40 39 37 36 35 34 34 33 33 34 34 35 35 36 36 36 37 39 40 42 43 44 43 43 43 43 44 45 45 46 47 49 48
41 42 43 45 45 45 45 44 43 42 40 38 37 36 35 34 34 33 32 32 32 33 34 34 34 35 36 37 39 41 42 43 44 43 43 42 43 44 45 44 45 47 49
43 43 45 47 47 47 46 45 44 41 39 38 37 36 34 33 33 33 32 31 31 32 33 33 33 34 35 36 38 40 42 43 43 43 44 43 43 42 43 44 44 45 47
45 45 47 49 48 48 47 46 44 41 39 37 36 35 34 32 32 32 32 32 32 32 33 33 33 34 34 36 37 38 40 43 43 44 45 44 43 43 42 43 43 43 45

GEFSMA_500_meanwind_060.txt.gz
Wind_Speed
14 14 14 15 15 14 14 14 14 15 16 16 18 18 18 18 17 17 16 16 17 17 16 17 18 19 20 20 19 19 18 17 16 15 15 14 14 14 13 11 10 8 6
13 13 14 14 14 15 15 15 15 15 16 16 17 18 19 19 18 18 18 17 17 17 16 17 18 20 22 22 22 21 21 20 19 18 17 16 16 15 15 13 12 10 8
12 12 13 13 14 14 15 15 15 15 16 16 17 18 19 20 20 19 19 19 19 18 18 18 19 20 23 24 24 24 24 23 22 21 20 19 18 18 17 16 14 12 10
12 12 12 13 13 13 13 14 14 15 16 16 17 18 19 20 21 21 20 20 20 20 20 19 20 21 22 24 25 25 26 26 26 25 24 23 21 20 20 18 17 15 14
10 10 10 11 11 12 12 13 13 14 15 16 17 17 19 20 20 21 22 21 22 22 22 22 21 21 23 25 26 27 28 29 28 28 27 26 25 24 23 21 20 19 17
9 9 9 10 10 11 11 11 11 12 13 14 15 17 18 18 19 20 21 22 22 23 23 24 23 23 23 24 26 28 29 30 31 31 31 29 28 27 26 24 23 22 20
8 8 9 9 9 10 10 10 10 11 12 13 14 15 16 18 19 20 21 22 22 23 24 25 25 25 25 25 26 28 29 30 32 33 33 33 32 30 29 27 26 24 23
8 8 9 9 9 9 9 9 10 10 11 11 13 14 15 16 17 18 19 21 22 23 24 25 26 27 27 27 27 28 29 30 32 34 35 36 35 34 32 31 29 27 26
8 9 9 10 10 10 10 10 11 11 11 12 13 14 15 15 16 17 18 19 21 22 24 25 26 27 28 29 30 30 30 30 32 34 37 38 38 38 36 34 33 31 29
9 10 10 10 11 11 11 12 12 13 13 13 14 15 16 17 17 18 19 20 21 22 23 25 26 28 29 30 31 32 32 32 32 33 34 38 40 40 40 38 37 34 32
11 11 11 11 12 12 13 13 14 14 15 15 15 16 17 18 19 20 21 21 22 23 24 25 26 28 29 30 32 33 33 34 34 35 35 36 40 42 42 41 40 38 36
12 12 13 13 14 14 15 16 16 17 17 18 18 18 19 19 20 21 22 23 24 25 25 26 28 29 30 31 32 34 35 36 36 36 36 36 39 41 43 44 43 41 39
12 13 14 14 15 16 17 18 18 19 19 20 21 21 22 22 22 23 23 25 25 26 27 28 29 30 31 32 33 34 35 36 38 38 38 38 39 40 42 45 46 45 43
13 13 14 15 16 18 19 20 20 21 22 22 23 23 24 25 25 26 26 26 27 29 30 31 31 32 32 33 34 35 36 37 38 39 40 40 41 42 42 43 46 47 45
14 15 16 17 19 20 21 22 22 23 24 25 25 26 27 27 28 28 29 29 30 30 32 33 34 35 35 35 36 37 38 39 40 40 41 42 43 43 43 43 45 46 46
16 17 18 19 21 22 24 25 25 26 26 27 27 28 29 30 30 31 31 32 32 33 33 35 37 37 37 37 38 38 39 41 41 42 42 43 44 44 44 45 46 47 46
19 20 21 22 24 25 26 27 27 28 29 29 30 31 31 32 32 33 34 35 35 35 35 36 38 39 40 40 41 41 41 42 43 43 44 44 44 45 46 46 47 48 49
21 23 24 25 26 27 28 29 29 30 31 32 32 33 33 33 34 35 35 36 37 37 37 37 39 41 41 42 42 43 43 43 44 45 45 45 46 46 47 47 48 49 49
24 25 26 27 28 29 30 31 31 32 33 33 34 34 35 35 36 36 36 37 37 37 37 37 38 40 41 42 43 43 43 44 44 45 46 47 47 47 48 49 49 49 50
26 27 28 29 31 32 32 33 33 34 34 35 35 36 36 37 37 37 37 37 37 37 37 36 37 38 40 41 42 43 43 44 45 46 47 48 48 48 48 49 49 49 50
29 30 31 32 33 34 34 35 35 35 36 36 37 37 38 38 38 38 37 37 37 36 36 36 36 37 38 39 40 41 42 43 44 45 47 48 49 49 49 50 50 50 50
31 32 33 34 35 35 36 36 36 36 37 37 38 39 39 39 39 38 38 37 37 36 36 36 36 36 36 38 38 39 39 41 42 45 46 47 49 50 50 51 51 51 51
34 34 35 36 37 38 37 37 37 38 38 38 39 39 40 40 39 39 38 37 37 37 36 36 35 35 36 37 37 37 38 39 39 42 44 45 48 49 50 50 51 51 51
37 37 38 39 40 40 39 39 40 39 39 39 40 41 41 41 40 39 38 37 37 37 36 35 34 34 35 36 36 37 38 38 39 41 43 43 46 47 49 49 50 50 51
39 40 40 41 41 42 42 42 42 41 41 41 42 42 42 41 40 39 37 37 37 37 36 35 33 33 34 35 35 36 36 37 37 40 42 42 43 46 48 48 49 50 51
42 42 42 43 43 43 44 44 44 43 43 44 44 44 43 42 40 38 37 36 36 36 36 34 34 33 34 35 35 35 36 36 36 38 41 41 42 45 46 47 48 49 50

GEFSMA_500_meanwind_066.txt.gz
Wind_Speed
11 11 12 12 12 12 12 12 13 13 14 14 14 13 12 12 13 14 14 14 14 14 15 16 17 18 19 19 19 19 18 17 17 16 15 15 14 14 13 12 10 8 7
10 10 11 11 11 12 12 12 13 13 13 13 13 13 13 13 13 14 15 14 15 15 15 16 17 18 20 21 21 20 20 20 19 18 17 17 16 15 15 14 12 10 8
9 9 9 10 10 10 11 11 12 12 12 13 13 13 13 13 14 15 15 15 15 16 16 16 18 19 20 21 22 23 22 22 21 21 20 19 18 18 17 16 14 13 11
7 7 8 8 8 9 9 10 11 11 12 12 12 13 13 13 13 15 16 16 16 17 17 17 18 18 20 20 22 23 24 24 24 23 22 22 21 20 19 19 17 15 14
5 6 7 7 7 8 9 9 10 10 11 11 12 12 13 13 13 14 15 16 17 18 18 18 19 18 19 20 22 24 25 26 26 26 25 24 23 23 22 21 20 19 17
5 6 6 6 7 7 8 8 9 10 10 10 11 11 12 13 13 14 14 15 17 18 18 19 19 20 20 21 21 23 25 26 27 28 27 27 26 26 25 24 23 22 20
5 6 6 6 6 7 7 7 8 9 9 9 10 11 11 12 12 13 13 14 15 17 18 19 20 21 21 22 22 22 23 25 27 28 30 30 29 29 28 27 26 25 24
5 6 6 6 7 7 7 7 8 8 9 9 9 10 10 11 11 12 13 14 15 16 17 19 20 21 22 23 23 24 24 25 27 28 29 31 32 32 31 30 30 28 27
5 5 6 6 6 6 7 8 8 9 9 10 10 10 11 11 12 12 13 13 14 16 17 18 20 21 22 23 24 25 26 26 27 28 30 31 32 34 34 33 33 32 30
4 5 5 6 6 7 8 8 9 9 10 11 11 12 12 12 12 13 14 14 15 16 17 19 20 21 23 24 25 26 27 28 28 29 30 31 32 33 36 36 35 35 34
4 5 5 6 6 7 8 10 10 11 11 12 12 13 14 14 14 14 15 16 17 18 19 20 21 22 23 24 26 27 28 29 30 31 31 32 32 32 34 37 38 38 37
4 4 5 6 7 8 9 11 11 12 13 13 14 15 15 16 17 17 18 18 19 19 20 21 22 23 24 25 26 27 29 30 31 32 33 33 34 34 34 35 38 40 40
5 5 6 7 8 9 10 12 13 14 14 15 16 16 17 18 18 19 19 20 20 21 22 22 23 24 25 26 27 28 30 31 32 33 34 35 35 36 36 36 37 40 42
7 8 9 10 10 11 13 14 14 15 16 17 18 18 19 19 20 20 21 22 22 23 24 24 25 26 27 28 28 29 30 32 33 35 36 36 37 38 38 38 38 38 41
10 10 12 13 14 15 16 17 17 18 18 19 20 20 21 21 22 22 23 23 24 25 26 26 27 27 28 30 30 31 32 33 34 35 37 38 39 40 40 40 41 40 41
12 13 14 15 17 18 19 20 20 20 22 22 22 23 23 23 24 24 24 24 26 27 28 30 30 30 31 32 33 34 34 35 36 37 38 39 41 42 42 43 43 43 43
15 17 18 18 19 21 22 22 23 23 24 24 24 25 25 25 25 25 25 26 27 27 28 30 32 33 33 34 35 36 37 38 38 40 41 41 42 43 44 45 45 45 46
18 19 20 21 22 23 24 24 24 25 26 26 27 27 28 28 27 27 27 28 29 29 29 30 32 33 34 35 36 38 39 40 41 42 43 44 44 45 45 46 47 47 48
22 23 23 24 25 25 26 26 27 27 28 28 29 30 30 30 30 30 30 31 31 31 31 31 32 34 35 36 37 38 40 41 42 44 45 46 47 48 48 48 49 49 50
25 26 26 27 28 28 28 28 29 30 30 31 32 32 32 32 32 32 32 32 32 32 33 32 33 35 36 37 38 39 40 41 42 44 45 47 49 49 50 50 50 51 52
29 29 29 30 30 31 31 31 31 32 33 34 34 34 34 34 34 33 34 34 34 35 35 35 35 36 37 39 39 40 40 41 42 43 45 47 49 50 51 52 52 52 53
31 32 32 33 33 34 34 34 34 35 35 36 36 36 36 36 36 36 36 36 37 37 38 38 38 38 39 41 41 41 41 40 41 43 44 45 47 48 51 52 53 54 54
35 35 35 36 36 37 37 37 37 38 38 38 38 39 39 38 38 38 38 39 39 39 40 40 39 40 41 42 42 42 41 41 41 42 43 43 45 46 48 50 52 53 54
38 38 39 39 39 40 40 40 41 41 41 41 41 41 41 41 41 41 40 40 41 41 42 42 41 41 42 43 43 42 42 41 41 42 43 42 43 45 46 47 49 51 53
41 42 42 42 42 42 43 44 45 45 44 44 44 43 43 43 44 43 43 42 43 43 44 43 42 42 42 42 43 42 42 41 40 40 42 42 42 44 45 45 47 49 51
45 46 46 46 46 46 47 48 49 49 48 47 47 46 46 46 47 46 46 45 45 45 46 45 44 43 42 42 42 42 41 40 39 38 40 41 41 43 43 45 46 47 48

GEFSMA_500_meanwind_072.txt.gz
Wind_Speed
8 7 7 7 7 7 7 7 7 7 7 7 8 9 9 10 10 11 12 12 13 14 14 15 15 15 15 15 16 17 17 17 16 15 14 14 14 13 12 11 10 8 7
6 6 6 6 6 6 6 6 6 6 6 7 7 8 9 10 11 11 12 12 13 13 14 14 15 15 15 16 17 18 19 19 18 18 17 16 16 15 14 13 12 10 9
5 5 5 5 5 5 5 6 6 6 6 6 6 7 8 9 10 11 12 13 13 13 13 13 14 15 16 16 18 19 20 21 20 20 19 18 18 17 16 15 14 13 11
4 3 3 3 4 4 5 5 5 4 5 5 5 6 7 8 9 11 12 13 13 13 13 14 14 15 15 16 17 19 21 22 23 22 22 21 20 19 18 18 17 15 14
2 2 2 2 2 2 3 3 3 3 4 4 4 5 5 7 8 9 10 12 13 14 14 14 15 15 16 16 17 18 21 22 24 24 24 24 23 22 21 20 19 18 17
1 1 1 1 1 2 2 2 2 3 3 4 4 4 5 6 7 9 10 11 12 13 14 15 15 16 17 17 18 18 18 21 23 25 26 26 26 25 24 23 22 21 20
1 1 0 1 1 2 2 2 2 3 3 3 3 3 4 5 6 8 9 10 11 12 13 14 15 16 17 18 18 19 19 19 22 24 26 28 28 27 27 26 26 25 24
1 1 1 1 1 2 2 2 3 3 3 3 3 3 4 5 6 7 8 9 11 12 13 14 15 16 16 17 18 19 19 20 21 23 24 27 29 29 29 29 29 28 27
2 1 1 1 1 2 2 3 3 3 3 3 3 4 5 5 6 7 8 9 10 11 12 13 14 16 16 17 18 18 19 20 21 21 22 24 28 30 31 31 31 30 30
2 2 1 1 1 1 2 3 3 4 4 4 4 5 6 7 8 8 9 10 11 12 13 14 15 15 16 17 18 19 19 20 22 22 23 24 24 26 28 31 33 33 33
3 3 2 2 1 1 2 3 4 4 5 5 6 6 7 8 9 10 10 11 12 13 14 15 16 17 17 18 19 20 20 21 22 24 24 26 26 26 27 29 32 35 35
4 4 4 4 3 3 4 4 5 6 7 7 8 9 9 10 10 11 12 13 13 14 16 17 18 18 19 20 20 21 22 22 23 24 25 26 28 29 29 29 30 33 36
6 6 6 6 6 6 7 7 8 8 9 10 11 11 12 12 13 13 14 15 15 16 17 18 19 20 21 22 22 23 23 24 24 25 26 27 28 29 31 31 32 33 33
8 8 8 9 9 9 10 10 11 11 12 12 13 13 14 15 15 15 16 17 17 18 19 19 20 21 22 23 24 25 26 26 27 27 28 28 29 30 31 32 34 35 35
9 10 10 11 12 12 13 13 14 15 15 15 16 16 17 17 17 18 18 19 19 20 21 21 21 22 23 24 25 26 27 28 29 29 30 30 31 32 32 33 34 36 37
12 13 13 14 15 15 16 16 17 17 18 18 19 19 19 19 20 20 21 21 22 22 23 24 23 23 24 24 25 27 28 29 30 31 32 32 33 34 34 35 35 36 37
16 16 17 17 18 18 19 20 20 21 21 21 21 21 21 22 22 22 23 23 24 24 25 26 26 26 26 26 26 27 28 29 30 31 33 34 34 35 36 37 37 38 39
20 20 21 21 21 22 22 23 23 23 23 23 24 24 24 24 24 25 25 25 26 26 27 28 29 29 28 28 28 28 29 29 31 32 33 34 35 36 38 39 39 40 41
23 24 24 24 24 25 25 25 25 26 26 26 26 26 27 27 27 27 27 28 28 28 28 29 30 31 31 30 30 30 30 30 31 32 33 35 36 37 38 40 41 42 43
27 27 27 27 27 27 28 28 28 28 29 29 29 29 29 29 30 30 30 30 30 30 31 31 31 32 32 33 33 33 32 32 32 33 34 35 36 38 39 41 42 43 44
29 29 29 29 29 29 30 30 30 31 32 32 32 32 32 32 32 32 32 33 33 33 33 33 33 34 35 35 35 35 35 35 34 35 35 36 37 38 40 41 42 44 45
31 31 31 31 31 31 32 32 33 34 34 34 34 35 35 35 35 35 36 36 36 36 36 36 36 36 37 38 38 38 37 37 37 38 38 38 39 39 41 42 43 44 46
33 33 33 34 34 34 35 36 37 38 37 36 37 38 38 39 39 39 39 39 39 39 40 40 39 39 40 40 40 40 40 40 40 40 40 40 41 42 42 43 44 45 46
36 36 36 37 37 37 39 40 42 42 41 40 41 41 41 42 43 43 44 43 43 42 43 44 43 42 42 43 43 43 42 42 42 42 42 42 43 44 44 44 45 45 46
38 39 40 41 41 42 43 44 45 46 46 45 45 45 46 46 46 47 48 48 46 46 46 46 45 44 44 45 46 46 45 45 44 44 44 44 44 45 45 45 46 46 47
41 42 43 44 45 46 47 48 49 50 50 50 50 50 50 49 50 50 52 52 50 49 50 50 48 47 47 47 48 48 48 47 47 46 46 46 45 46 46 46 46 46 46

GEFSMA_500_meanwind_078.txt.gz
Wind_Speed
10 9 8 8 7 7 7 7 6 6 7 7 7 7 7 8 8 8 10 9 10 10 10 10 11 11 12 13 12 13 14 15 15 14 13 12 11 10 9 8 7 6 5
9 8 7 7 6 6 6 6 5 6 5 6 6 6 7 7 8 7 8 8 9 10 10 11 11 12 12 13 14 14 15 16 16 16 15 14 13 12 11 10 9 8 7
8 7 6 6 6 5 5 5 4 4 4 4 5 5 6 6 7 7 7 7 9 9 10 11 11 12 13 13 14 15 16 16 17 17 17 16 15 15 14 13 11 10 9
6 6 5 5 4 3 3 3 3 3 3 3 3 4 4 5 5 6 6 6 7 8 9 10 10 10 11 12 14 15 16 16 17 18 18 18 18 17 16 16 14 13 12
5 4 3 2 2 2 2 2 2 2 2 2 3 3 3 4 5 6 6 5 6 7 8 9 9 9 10 10 12 13 15 16 17 17 19 19 20 20 19 18 17 16 15
3 2 1 0 0 1 1 1 1 1 2 2 2 2 3 3 4 5 5 5 6 6 8 8 8 9 9 10 10 11 12 13 16 17 17 19 20 20 21 21 21 20 18
3 2 1 1 1 2 2 2 3 3 3 3 3 3 3 3 4 5 5 6 6 6 7 8 8 9 9 10 10 10 11 12 13 14 16 19 20 21 21 22 23 22 22
3 2 2 2 2 3 3 3 3 3 3 4 4 4 4 4 4 5 6 6 7 7 7 7 8 9 10 10 11 11 11 11 12 13 14 17 19 21 22 24 25 25 24
4 3 2 2 2 2 2 2 3 3 4 4 4 4 4 5 6 6 6 7 7 8 8 8 9 9 10 10 11 11 11 12 13 14 14 15 16 18 21 24 25 26 26
5 4 3 3 2 1 1 1 2 3 4 4 5 5 6 6 7 7 8 8 8 9 9 9 10 10 11 11 12 12 12 13 14 14 15 16 17 17 18 20 23 26 27
6 5 4 3 2 1 1 2 2 3 4 5 6 7 8 8 8 8 8 9 10 10 10 10 11 11 12 12 13 13 14 14 15 15 16 16 17 18 19 19 20 23 26
7 6 5 5 4 4 3 4 4 5 6 7 8 9 9 10 10 10 10 11 11 11 12 12 13 14 13 14 15 15 15 16 17 17 18 18 18 18 19 20 22 22 23
8 8 7 7 6 6 6 7 7 8 8 9 10 10 11 12 12 13 13 13 13 14 14 15 16 16 16 15 17 17 17 18 18 19 20 20 21 21 21 22 22 24 25
9 9 9 8 9 9 9 10 10 11 12 12 13 14 14 15 16 16 16 16 16 16 16 17 18 18 18 18 18 19 19 19 20 20 21 21 22 23 24 24 24 25 26
11 11 11 11 11 11 12 13 14 14 15 16 17 17 18 19 19 20 20 20 20 20 19 19 19 20 21 20 20 21 21 21 22 22 22 23 23 24 25 26 27 27 28
13 13 13 13 14 14 15 16 17 18 19 19 20 21 21 22 22 22 23 23 23 23 23 23 22 22 23 23 23 24 24 23 24 24 24 24 25 25 26 27 28 29 30
15 15 15 16 16 17 18 19 20 21 22 22 23 23 24 24 25 25 25 25 26 26 26 27 26 25 25 26 25 26 26 26 27 27 27 27 27 27 28 29 29 30 31
17 18 18 19 19 20 21 22 23 24 25 25 25 26 26 27 27 28 28 28 29 29 29 30 30 29 28 28 28 29 29 28 28 29 30 30 30 30 29 30 30 31 31
20 21 21 22 22 23 24 25 26 26 27 27 28 28 28 29 30 30 30 31 32 32 32 32 33 33 32 31 31 31 32 31 31 31 31 31 32 32 32 32 32 32 33
23 23 24 24 25 26 27 28 29 29 30 30 30 30 31 32 32 33 33 34 35 35 35 35 35 35 35 35 34 34 34 34 34 34 34 33 34 34 34 34 34 34 35
25 25 26 27 28 28 29 30 31 32 32 32 33 33 33 34 35 36 37 37 38 38 38 38 38 38 38 38 38 37 37 36 36 37 36 36 36 35 35 36 36 36 36
26 27 29 30 30 31 32 33 34 34 35 35 35 36 36 36 37 38 39 40 41 41 40 40 40 40 40 41 41 40 40 39 38 39 39 38 38 37 37 37 37 37 38
30 30 31 32 32 33 35 35 36 37 37 38 37 38 38 39 40 40 41 42 43 44 45 44 44 42 43 44 45 44 43 42 41 41 42 40 40 39 39 39 39 39 39
33 33 34 34 34 35 36 36 38 39 40 40 40 41 42 42 43 44 45 45 45 45 46 48 48 46 46 47 48 48 47 46 45 44 45 44 43 42 42 41 41 41 40
36 36 36 37 38 38 39 39 40 41 42 43 44 44 45 46 46 47 48 49 49 49 49 50 50 50 50 50 50 51 50 49 48 46 46 47 46 46 45 43 43 43 42
39 39 40 41 41 42 42 42 42 43 44 45 46 46 48 49 50 51 51 52 52 52 54 54 54 53 53 52 53 53 53 53 52 50 48 50 49 48 47 45 45 45 44

GEFSMA_500_meanwind_084.txt.gz
Wind_Speed
8 7 7 7 6 6 6 7 6 6 7 7 6 5 5 5 6 6 6 6 5 7 8 8 8 8 9 10 10 10 10 11 12 12 12 11 11 10 9 9 8 7 6
7 6 6 6 6 5 5 6 6 6 6 6 5 4 4 4 4 5 5 5 6 7 8 8 8 9 9 10 10 11 11 12 12 14 14 13 13 12 12 11 10 9 8
6 5 5 5 4 5 5 5 5 5 4 4 4 3 2 2 2 4 4 5 5 6 7 8 8 8 9 10 10 11 12 12 12 13 14 15 15 14 14 13 12 12 11
5 4 4 3 3 4 4 3 3 3 3 2 2 2 1 1 2 2 2 3 4 4 5 6 7 7 7 8 9 11 12 13 13 13 14 15 17 17 16 15 15 14 13
5 4 3 3 2 2 2 2 2 2 1 1 1 1 1 1 1 1 1 1 2 2 4 5 5 5 5 6 8 9 10 11 13 14 14 15 16 18 18 17 17 17 16
5 4 3 3 3 2 2 2 2 1 1 0 1 1 1 1 1 0 0 1 1 1 1 3 4 5 5 5 6 7 9 10 11 13 14 15 17 17 19 19 19 19 18
6 5 4 4 4 4 4 4 4 3 2 2 2 2 2 2 2 1 1 1 1 1 1 2 3 4 5 6 6 6 7 8 10 12 13 14 16 17 18 18 19 19 20
7 6 6 5 5 5 5 5 4 4 4 3 3 3 2 2 2 2 2 1 1 1 1 1 2 3 4 5 6 6 7 8 8 10 11 12 14 15 17 19 20 20 20
9 8 7 7 6 6 5 5 5 4 4 3 3 2 2 2 2 2 1 1 1 1 1 2 3 4 4 5 6 7 7 8 9 10 11 11 13 14 16 18 20 21 22
10 9 8 7 7 6 5 5 4 4 3 2 2 1 1 1 1 1 1 1 1 1 2 2 3 4 5 6 6 7 8 8 9 10 11 12 13 14 15 16 17 20 22
11 10 9 8 8 7 6 5 4 4 3 2 2 1 1 1 1 1 2 2 2 2 3 3 4 5 6 7 7 8 9 10 10 11 12 13 14 15 15 16 17 18 20
12 12 11 10 9 8 7 6 6 5 4 4 4 3 3 3 3 3 4 5 5 5 5 5 6 7 8 8 9 9 10 10 11 12 13 14 14 15 16 17 17 18 19
13 12 12 11 10 10 9 9 8 7 7 6 6 6 6 6 6 7 7 7 8 8 9 8 8 9 10 10 10 11 11 12 13 13 14 15 16 17 17 18 19 19 20
14 13 13 13 12 12 12 11 11 10 9 9 9 9 9 9 10 10 10 11 11 12 12 12 12 12 12 12 13 13 13 14 14 15 16 16 17 18 19 20 21 21 22
15 15 15 14 14 14 14 14 14 13 13 13 13 13 13 13 13 14 14 14 14 15 15 15 16 16 16 16 16 16 16 16 17 17 17 18 19 20 20 21 22 23 23
16 17 16 16 16 17 17 17 17 17 16 16 16 16 17 17 17 17 18 18 18 18 18 18 18 19 19 20 20 20 19 19 20 20 20 21 21 21 22 23 24 24 25
18 18 18 18 18 19 19 19 20 20 20 19 19 20 20 20 21 21 21 21 21 21 21 21 21 22 22 22 23 23 24 24 24 24 24 24 24 24 25 25 26 26 27
20 20 20 20 21 21 22 22 22 22 22 22 23 23 23 23 24 24 24 24 24 24 24 24 24 24 25 25 25 26 26 27 27 27 27 27 27 27 27 28 28 28 29
21 22 22 23 23 24 24 25 25 25 25 25 25 26 26 26 26 27 27 27 28 28 28 28 28 28 28 29 29 29 30 30 30 30 31 31 31 31 31 31 31 31 32
23 23 24 25 26 26 27 27 27 27 28 28 28 29 29 29 30 30 30 31 31 31 31 31 31 32 32 33 33 33 33 33 33 34 34 34 34 34 34 35 35 34 34
24 25 26 27 28 28 29 29 29 30 31 31 31 32 32 33 33 34 34 34 34 34 34 34 34 35 35 36 37 37 36 36 35 36 37 37 37 37 37 37 38 38 37
25 26 27 29 29 30 32 32 32 33 34 34 34 35 35 36 36 37 37 37 37 37 38 38 39 38 38 39 40 40 40 39 38 39 41 40 40 40 40 41 41 41 41
25 27 29 30 30 31 32 34 34 33 34 34 36 37 37 38 39 40 40 40 40 41 42 42 43 42 42 43 44 45 45 45 43 42 44 43 43 43 44 44 44 44 43
27 29 30 31 32 33 34 35 36 36 35 37 38 39 41 41 41 42 43 43 43 44 45 46 46 45 46 46 47 48 49 49 47 47 47 47 46 47 47 48 47 47 47
31 32 32 34 35 36 37 37 39 39 40 40 41 43 43 44 44 44 45 45 46 46 47 48 49 49 50 50 51 52 53 53 52 51 52 52 50 51 51 51 51 51 50
34 34 34 37 38 38 39 40 40 40 41 42 42 43 43 44 46 47 47 48 48 49 50 51 52 53 54 55 56 57 57 58 58 57 56 57 56 57 56 54 54 54 54

GEFSMA_500_meanwind_090.txt.gz
Wind_Speed
8 8 8 8 8 7 6 5 4 3 3 3 3 3 4 4 5 5 5 6 7 8 9 10 11 11 11 10 11 11 11 11 11 11 11 10 10 9 8 8 7 7 6
8 8 8 7 7 6 5 5 4 3 2 2 2 3 3 3 4 5 5 6 7 7 8 10 11 11 11 11 11 11 11 12 12 12 12 12 12 11 10 10 9 9 8
8 8 7 6 6 5 4 4 3 2 2 2 2 2 2 2 3 4 5 5 6 6 7 9 11 11 11 11 12 12 13 13 13 13 13 13 14 13 13 12 11 11 10
8 7 6 5 5 4 4 3 3 2 1 1 1 2 2 2 2 3 4 4 5 6 6 7 9 10 10 11 11 12 13 13 13 13 14 13 14 15 15 14 14 13 13
8 6 5 4 4 4 3 3 2 1 1 1 1 2 2 2 2 2 3 3 3 4 5 6 7 8 8 9 9 10 12 13 14 13 14 14 14 15 15 16 16 15 15
8 7 6 5 4 4 3 2 2 2 2 2 2 2 2 2 2 2 2 2 2 3 4 5 5 6 6 7 8 8 9 10 12 13 13 14 15 15 16 16 17 17 17
9 8 7 5 4 3 2 2 2 2 2 2 2 2 2 2 2 2 2 2 2 2 3 4 4 5 5 5 6 6 7 9 10 12 12 13 14 15 16 16 17 18 18
10 8 7 6 5 4 3 2 2 2 2 2 2 2 2 2 2 2 2 2 2 2 2 3 4 4 5 5 5 6 6 7 8 10 12 12 13 14 15 15 16 17 18
11 9 8 7 6 5 4 3 3 2 2 2 1 1 1 2 2 2 2 2 2 2 2 3 3 4 5 6 7 7 7 8 9 10 11 12 13 13 14 15 16 16 17
11 10 9 9 8 7 6 5 4 3 3 2 2 2 2 2 2 2 2 2 2 2 2 3 4 4 5 6 7 8 8 9 9 10 11 12 13 13 14 14 15 16 18
12 11 11 10 9 8 8 7 6 5 4 3 3 2 2 3 3 3 3 3 3 3 4 4 5 5 6 6 7 7 8 9 9 10 11 11 12 13 14 15 16 16 17
13 12 12 12 11 10 9 8 8 7 6 6 5 5 5 5 5 5 5 5 5 6 6 6 7 7 8 8 9 9 10 10 10 11 11 12 12 13 14 15 16 17 18
14 13 13 13 12 12 11 10 10 9 9 9 8 8 7 7 7 7 8 8 8 9 9 9 10 10 11 11 11 12 12 13 13 13 13 14 14 15 15 16 17 18 19
15 15 14 14 14 13 13 13 12 12 12 12 11 11 11 11 11 11 11 11 12 12 13 13 14 14 15 15 15 15 15 16 16 16 16 17 17 17 18 18 19 19 20
15 15 15 16 15 15 15 15 15 14 15 15 15 15 15 15 15 15 15 15 16 16 17 17 17 18 18 18 19 19 19 19 20 20 20 20 20 20 21 21 22 22 22
16 15 16 17 17 17 18 18 18 18 18 18 19 19 19 19 19 19 19 19 20 20 21 21 21 21 21 22 22 22 23 23 23 23 23 24 24 24 24 24 25 25 25
16 16 17 18 18 19 20 20 20 21 21 22 22 22 22 22 23 23 23 23 23 23 24 24 25 25 25 25 26 26 27 27 27 27 27 28 28 28 28 28 28 29 29
17 18 19 20 21 21 22 23 23 24 24 25 25 26 26 26 27 27 27 27 27 27 28 28 28 29 29 30 30 30 31 31 31 32 31 31 31 32 32 32 32 33 33
19 20 21 22 23 24 25 25 26 27 27 28 29 29 30 30 31 31 31 31 31 32 32 32 32 33 33 34 34 35 35 35 35 35 35 36 36 36 36 36 36 36 36
20 22 23 24 25 25 27 28 29 30 31 31 32 33 33 34 34 35 35 35 36 36 36 36 36 37 37 38 38 39 39 39 39 39 39 39 40 40 40 40 39 39 40
22 24 25 26 27 27 29 31 32 33 34 35 35 36 37 37 38 39 39 40 40 40 40 41 40 40 41 42 43 43 42 42 42 42 43 43 44 43 43 43 43 43 44
23 25 26 27 28 29 30 32 34 35 35 36 37 38 39 40 41 42 43 43 44 44 44 45 45 45 45 45 46 47 47 47 46 45 47 46 47 46 46 46 47 47 47
25 26 27 28 29 30 32 33 35 36 37 38 40 41 42 44 44 45 46 46 47 47 48 48 49 49 49 49 50 50 51 51 50 49 50 49 49 49 49 49 50 50 50
26 27 29 30 31 33 34 36 37 38 39 40 41 43 44 45 46 46 47 49 50 50 51 52 52 52 53 53 53 54 54 54 53 52 54 53 51 52 52 53 53 54 54
27 29 30 32 33 35 36 37 39 40 42 43 44 45 46 47 47 48 50 51 51 52 53 54 55 55 56 56 56 56 56 56 55 55 56 57 57 57 57 56 57 58 58
30 31 32 34 36 37 38 39 41 43 44 45 46 47 48 48 49 50 51 52 53 54 55 56 56 56 57 57 58 59 59 59 59 59 60 61 62 63 62 60 61 62 63

GEFSMA_500_meanwind_096.txt.gz
Wind_Speed
7 5 4 4 5 5 4 4 4 4 4 4 4 4 5 5 6 7 7 8 8 9 11 12 13 13 13 12 11 12 12 12 11 11 11 11 10 10 9 8 8 7 6
7 5 4 4 4 4 4 4 4 4 4 4 4 4 5 5 6 6 6 7 7 8 10 11 12 14 14 13 13 13 13 12 12 12 12 12 12 11 11 11 10 9 8
8 6 4 3 3 3 3 4 4 3 3 3 3 4 4 4 4 5 6 6 6 7 8 9 10 12 12 12 13 13 14 14 14 13 13 13 13 13 12 12 12 11 10
8 6 4 3 3 3 3 3 3 3 3 3 3 3 3 3 4 5 5 6 6 7 7 7 8 10 11 11 12 13 13 14 14 14 14 14 14 14 14 14 14 14 13
8 6 5 4 3 3 3 3 2 2 2 2 2 3 3 3 3 3 4 5 5 5 5 5 6 7 9 10 10 10 12 13 14 15 15 14 14 15 14 14 14 14 14
9 7 6 4 3 3 3 3 2 2 2 2 3 3 3 3 3 3 3 3 4 4 5 5 5 6 7 8 8 8 9 11 12 13 15 15 15 15 15 14 14 15 15
10 8 7 6 4 3 4 3 3 2 2 2 2 2 2 2 2 2 2 3 3 4 4 4 5 5 5 6 6 7 7 9 10 11 12 14 14 15 15 15 15 16 16
11 9 8 7 6 5 5 4 4 3 3 2 2 2 2 2 2 2 2 3 3 4 4 4 4 5 5 5 6 6 6 7 8 9 11 12 12 13 14 14 15 15 16
12 10 9 8 7 6 6 5 5 4 3 3 2 2 2 2 2 3 3 3 3 3 4 4 4 5 6 6 6 6 7 7 8 9 10 11 12 13 14 15 15 16 17
14 12 10 9 8 8 7 6 6 5 4 4 3 3 3 3 3 3 3 3 4 4 4 5 5 6 6 7 7 7 7 8 9 9 10 10 11 13 14 14 15 16 17
15 13 12 11 10 9 9 8 7 7 6 5 4 4 4 5 5 5 5 5 6 6 6 6 7 7 7 7 8 8 9 10 10 10 11 11 12 13 13 14 15 16 16
15 14 14 12 12 11 10 10 9 8 7 7 6 6 6 6 7 7 7 7 8 8 8 8 9 9 10 10 10 11 11 11 12 12 13 13 13 14 14 15 15 16 17
16 15 15 14 13 12 12 11 11 11 10 10 9 9 9 9 9 10 10 10 10 10 10 11 11 12 13 13 14 14 14 14 15 15 15 16 16 16 16 17 17 18 18
17 16 15 15 14 14 13 13 13 13 13 13 12 12 12 12 12 12 13 13 14 14 14 15 15 16 16 17 17 18 18 18 19 19 19 19 19 20 20 20 20 20 21
17 16 16 16 16 15 16 16 15 15 15 15 15 15 15 15 15 16 16 17 17 18 19 19 19 20 20 21 21 21 22 22 23 23 23 23 23 23 23 23 23 24 24
17 17 17 18 18 17 18 18 18 18 18 18 18 18 19 19 19 20 20 21 22 22 23 23 24 24 25 25 25 25 26 26 26 26 26 27 27 27 27 27 27 27 27
18 18 18 19 19 19 19 19 20 20 21 21 21 22 22 23 23 23 24 25 26 26 27 28 28 29 29 29 29 30 30 30 30 30 30 30 30 31 31 31 31 31 31
19 19 19 19 19 19 20 21 21 22 23 24 24 25 26 26 26 27 28 29 30 30 31 32 33 33 34 34 34 34 35 34 35 34 35 35 35 35 35 35 35 35 35
19 19 20 20 21 21 22 22 23 24 26 26 27 28 29 29 30 31 31 32 33 34 34 36 37 37 38 38 38 39 39 39 39 40 39 39 39 39 39 40 40 40 40
19 20 20 21 22 23 23 24 25 25 27 28 29 30 31 31 33 34 34 35 36 37 38 39 40 41 42 42 43 43 43 43 43 44 44 44 44 44 44 44 44 44 44
18 20 21 22 23 24 25 26 27 27 28 30 31 32 33 34 35 36 37 38 39 40 41 41 42 43 44 45 45 46 46 46 46 47 47 47 48 48 48 48 48 48 48
20 21 21 22 23 24 25 27 28 29 31 32 33 34 35 36 37 38 39 40 41 43 44 45 45 45 46 47 49 49 50 50 50 50 50 50 51 51 52 52 52 51 52
21 22 24 24 26 27 27 28 30 32 33 34 36 37 38 39 40 40 41 43 45 45 46 48 49 50 51 52 52 53 54 54 53 53 54 53 53 54 54 54 54 54 54
23 24 25 26 27 28 29 31 32 34 35 37 39 40 41 42 44 45 46 47 48 49 50 51 52 52 54 55 55 55 56 56 55 55 56 55 55 56 56 56 56 55 56
23 25 26 27 28 30 31 32 34 35 37 39 41 43 44 45 46 48 49 50 51 52 52 52 53 54 55 56 56 57 57 57 57 57 58 59 59 59 58 57 58 58 58
26 27 29 30 31 33 34 36 37 38 39 41 43 45 46 47 48 49 50 51 52 53 54 55 56 57 57 58 58 59 59 60 60 60 60 61 60 61 60 60 60 61 61

GEFSMA_500_meanwind_102.txt.gz
Wind_Speed
9 8 7 6 6 5 5 5 4 4 4 3 3 4 4 4 5 5 6 5 7 7 7 7 7 8 9 10 10 10 9 9 9 10 10 9 9 8 8 7 7 6 6
9 8 7 6 5 5 5 4 4 3 3 3 3 3 3 3 4 4 4 4 5 6 7 6 6 7 8 9 10 10 11 10 10 10 11 11 10 9 9 9 9 8 8
9 8 7 6 5 5 4 4 3 3 3 3 3 2 3 3 3 4 4 4 5 6 6 6 5 5 6 8 9 10 11 11 10 11 11 12 11 11 10 10 10 10 10
9 8 7 6 5 4 4 4 3 2 2 2 2 2 2 3 3 3 3 4 4 4 5 5 5 5 5 6 7 9 10 11 11 11 12 12 12 12 12 12 12 12 12
10 8 8 6 5 4 4 3 2 2 2 1 1 1 2 2 2 2 2 2 3 3 4 4 4 5 5 6 5 7 8 9 10 11 12 13 14 13 13 12 12 12 12
11 9 8 7 5 4 4 3 3 2 2 1 1 1 2 1 2 2 2 2 2 3 3 3 3 4 4 5 5 6 7 7 8 9 10 11 12 13 13 13 13 13 13
11 10 9 7 6 5 4 3 3 2 1 1 1 1 1 1 0 1 1 1 2 2 3 3 3 3 4 5 4 5 6 7 8 8 8 10 12 12 13 14 14 14 14
12 10 9 8 6 5 5 4 3 3 2 1 1 1 1 1 0 1 1 2 2 3 3 3 3 4 5 4 4 4 5 5 6 6 6 7 9 11 12 13 13 13 14
13 12 10 9 8 7 6 5 4 4 3 2 1 1 1 1 1 1 1 2 2 3 3 4 4 4 4 5 4 4 5 5 6 6 6 7 7 9 10 10 11 13 14
14 13 11 10 9 9 8 7 6 5 4 3 2 2 2 2 1 2 2 2 3 3 4 4 4 5 5 5 5 5 5 6 6 6 7 7 7 8 9 10 10 11 13
16 14 13 12 12 11 9 8 8 7 6 5 4 4 4 3 3 3 3 4 4 5 5 5 5 5 6 6 6 7 7 7 8 8 8 9 9 9 10 10 11 12 13
16 15 14 14 13 12 11 10 10 9 8 8 7 7 6 6 6 6 6 6 6 7 7 7 7 8 7 8 8 9 9 10 10 11 11 11 11 12 12 12 13 13 14
16 15 15 16 15 14 13 13 12 11 11 10 10 10 10 10 10 10 10 10 10 10 10 10 11 11 11 11 11 12 12 13 13 14 14 15 15 15 15 16 16 16 16
17 17 17 16 16 16 15 15 14 14 14 14 13 13 13 13 13 13 14 14 14 14 14 14 14 15 15 15 16 16 17 17 17 18 18 18 19 19 19 19 19 19 19
18 18 18 17 17 17 17 17 16 16 16 17 17 17 17 17 17 17 17 18 18 18 18 18 18 19 20 20 21 21 21 22 22 22 22 22 23 23 23 23 23 23 23
19 19 20 19 19 18 18 18 18 18 19 19 19 20 20 20 21 21 21 22 22 23 23 23 23 23 24 25 25 25 26 26 27 27 27 27 27 27 27 27 27 27 27
19 20 21 21 21 21 20 20 20 20 20 21 21 22 23 24 24 24 24 25 25 26 27 28 28 28 28 29 29 30 30 30 30 31 31 32 32 32 31 31 31 31 31
19 20 21 21 22 22 22 22 22 22 22 22 23 24 25 26 26 27 27 27 28 28 29 30 31 32 32 33 33 34 34 34 34 34 35 35 36 36 36 36 36 36 36
18 19 20 21 21 22 22 22 22 22 23 24 25 25 26 27 28 28 29 29 30 31 32 32 34 35 35 36 36 37 37 37 37 38 39 39 39 40 40 40 41 41 41
17 19 20 20 21 21 22 23 23 24 24 25 26 27 27 28 29 30 30 32 33 34 35 35 36 37 39 39 39 39 40 41 41 42 42 42 42 43 43 43 44 44 45
16 18 19 19 20 21 22 23 24 25 26 26 27 27 28 29 30 31 32 33 35 36 37 38 39 39 40 41 42 43 43 44 45 46 46 46 46 46 46 46 46 47 48
16 18 19 20 20 20 22 24 25 26 27 27 28 28 29 30 32 33 34 36 37 38 40 41 42 43 44 45 46 47 48 48 48 49 51 51 52 51 50 50 50 50 50
18 18 19 19 21 22 23 25 26 27 28 30 30 31 32 33 34 36 38 38 40 42 43 44 45 46 47 48 49 50 51 51 51 52 54 53 54 55 55 54 54 54 54
20 21 21 23 23 24 25 26 27 28 30 31 32 34 35 36 38 38 40 41 42 43 44 46 47 48 50 51 52 53 53 54 54 55 57 57 56 56 56 56 56 57 57
22 23 24 26 26 27 27 28 29 30 32 33 34 36 37 38 39 40 41 43 44 45 47 48 49 51 52 53 54 56 56 57 58 58 60 61 61 61 60 59 59 60 60
26 27 27 28 29 29 30 31 32 33 34 36 37 38 40 41 42 43 45 46 47 49 50 51 53 54 55 57 58 60 61 62 62 63 63 64 65 65 64 63 63 63 62

GEFSMA_500_meanwind_108.txt.gz
Wind_Speed
8 7 6 5 5 4 4 4 4 4 3 2 2 2 2 2 2 2 2 3 4 4 3 4 5 6 7 8 8 9 9 9 9 10 10 10 10 10 9 9 8 8 7
8 7 6 5 4 4 3 3 4 3 3 3 2 2 2 2 2 2 2 2 3 3 3 3 4 5 6 6 7 9 9 9 9 10 10 11 11 11 11 10 10 10 9
10 9 7 6 4 4 3 3 3 3 3 2 2 2 2 2 3 2 1 2 3 3 3 3 3 4 4 5 6 7 8 10 10 10 11 11 12 11 11 11 11 11 11
11 9 7 6 5 4 3 3 3 3 3 2 2 3 3 3 3 2 2 2 2 3 3 3 3 4 4 5 5 6 6 8 10 10 11 12 12 12 12 13 12 12 12
12 10 8 7 6 5 4 3 3 3 3 3 2 2 2 3 2 2 2 2 2 2 3 3 3 4 4 5 5 6 6 7 7 9 10 11 12 12 13 13 13 13 13
12 11 9 8 7 6 5 4 3 3 3 3 2 2 2 2 1 1 1 2 2 2 3 2 2 3 3 4 5 5 5 6 7 7 8 10 11 12 12 13 14 14 14
14 12 10 9 8 7 6 5 5 4 3 3 3 2 2 2 2 1 1 2 2 2 2 2 2 2 2 3 3 4 5 5 6 7 7 8 10 12 13 13 14 14 14
14 13 12 11 9 8 7 6 6 5 4 4 4 3 3 3 3 2 2 2 2 2 1 1 2 1 2 2 2 3 3 4 5 6 6 6 7 8 10 12 13 13 13
15 15 14 13 11 10 9 8 7 6 5 5 5 4 4 3 3 3 3 2 2 1 1 1 1 2 2 2 2 2 3 4 4 5 5 6 5 6 7 8 10 11 12
17 16 15 14 13 12 11 10 9 8 7 7 6 5 4 4 3 3 3 2 2 2 2 2 2 2 3 3 2 2 3 3 4 5 5 6 6 7 7 8 9 11 11
17 17 17 16 15 13 12 11 11 10 9 8 7 6 5 5 4 4 4 4 4 4 4 4 4 4 4 4 5 5 4 5 5 6 6 7 7 8 8 9 9 10 11
18 18 18 17 16 15 14 13 13 12 11 10 9 9 8 7 7 6 6 6 6 6 6 6 6 6 7 7 7 7 7 8 8 8 9 9 10 10 11 11 12 12 12
20 19 19 18 17 16 15 15 15 14 13 12 12 11 10 10 10 9 9 9 9 9 9 10 10 10 10 10 11 11 11 11 11 12 12 13 13 14 14 15 15 16 16
21 20 20 19 18 17 17 17 17 16 15 15 14 14 13 13 13 12 12 12 13 13 13 13 13 13 14 14 15 15 15 16 16 16 17 17 17 18 18 19 19 19 20
21 21 20 20 20 19 19 19 19 18 17 17 17 17 16 16 16 16 16 16 16 17 17 17 17 17 17 18 18 19 20 20 21 21 21 21 22 22 22 23 24 24 24
21 20 20 21 21 20 20 20 20 19 19 19 19 19 19 20 19 19 19 19 19 20 20 20 20 21 21 21 22 23 24 24 24 25 25 26 26 27 27 28 28 28 29
20 20 20 20 21 22 22 21 21 21 21 21 21 21 21 22 22 22 22 22 22 22 23 23 23 23 24 24 25 25 26 26 27 28 28 29 29 30 31 31 32 32 33
18 19 20 20 20 21 22 23 23 23 23 23 23 23 23 24 24 24 24 24 24 25 25 26 26 26 26 27 27 28 29 29 30 31 32 32 33 34 34 35 36 36 36
17 19 20 20 20 21 22 23 24 24 24 24 24 24 24 24 24 24 25 26 26 27 27 28 29 29 30 30 30 31 32 33 34 35 36 36 37 38 39 39 40 40 41
17 17 19 19 19 19 21 22 23 24 25 25 24 24 25 25 26 26 26 27 27 28 29 30 31 32 33 34 34 35 36 36 38 39 39 40 40 41 43 44 44 45 46
15 16 17 18 18 19 21 21 22 23 24 25 25 26 26 27 27 28 28 29 30 30 31 32 33 35 36 38 38 39 40 40 41 42 43 43 44 45 46 47 48 49 50
15 16 16 17 18 19 20 21 22 23 24 25 26 27 27 28 29 30 31 32 33 34 35 36 37 38 39 41 42 43 44 45 45 46 47 47 49 49 50 51 52 53 53
14 15 16 17 18 19 20 20 21 23 24 25 27 28 30 31 31 32 33 34 35 36 38 39 40 42 43 44 45 46 47 48 49 49 51 51 52 53 54 55 56 57 57
16 17 18 19 19 20 21 23 25 26 28 29 30 31 32 33 34 35 36 37 38 39 40 41 43 44 45 45 47 48 49 51 52 53 54 54 55 56 58 59 61 62 62
17 18 19 20 21 22 23 25 27 28 30 31 32 33 34 35 36 37 38 39 40 42 43 44 45 46 47 48 50 51 52 54 55 57 59 60 60 61 61 63 64 65 66
20 21 22 23 24 25 26 28 29 31 32 33 34 34 36 37 38 39 41 42 43 45 46 48 49 50 51 52 53 55 56 58 59 60 62 63 65 66 65 65 65 66 67

GEFSMA_500_meanwind_114.txt.gz
Wind_Speed
5 4 4 3 3 3 2 3 3 3 2 2 2 2 2 2 3 3 3 4 5 5 5 6 6 8 9 9 9 9 9 9 9 9 9 9 9 9 9 8 8 8 7
7 6 5 5 4 3 3 3 3 3 2 2 2 2 2 2 3 3 4 5 5 5 5 6 7 8 9 9 9 9 9 10 10 10 10 10 10 10 10 10 9 9 9
9 7 7 6 5 5 4 4 3 2 2 2 2 2 3 3 3 3 3 4 4 5 5 6 7 7 7 8 8 9 9 10 10 10 11 11 11 11 11 11 11 10 10
11 10 8 7 6 6 5 3 3 2 2 2 2 2 3 3 3 3 3 4 4 4 5 5 6 6 6 6 7 7 7 8 9 10 10 11 11 12 12 12 12 12 11
13 12 10 8 8 7 5 4 3 3 3 3 2 3 3 3 3 3 3 3 3 4 4 5 5 6 6 6 6 7 7 7 7 8 9 10 11 11 11 12 12 12 12
14 13 11 10 9 8 7 5 4 3 3 3 2 2 3 3 3 3 3 3 3 3 3 4 5 5 6 6 6 7 7 7 7 7 8 9 10 11 11 12 12 13 13
15 14 12 11 10 9 8 7 5 4 3 3 2 2 2 2 3 3 3 3 2 2 2 3 4 5 5 6 6 6 6 7 8 8 8 9 9 10 11 12 12 13 13
17 15 13 12 12 11 9 8 7 5 4 4 3 3 3 3 3 2 2 2 2 2 2 3 3 4 4 5 6 6 6 7 7 8 9 9 10 10 11 12 12 13 14
17 16 15 13 13 12 11 10 8 7 6 5 5 5 4 4 3 3 3 3 3 2 2 2 3 4 4 5 5 6 6 6 7 7 8 9 9 9 10 10 11 11 12
17 16 16 14 14 14 13 12 10 9 8 8 7 6 5 5 5 4 4 4 4 3 3 3 4 4 5 5 5 5 6 7 7 8 8 9 9 10 10 10 10 11 12
18 18 17 16 15 15 14 13 12 11 10 9 9 8 7 7 7 6 6 5 5 5 5 6 6 6 7 7 7 8 8 8 8 9 9 10 10 11 11 11 12 12 13
19 19 19 17 17 16 16 15 14 14 13 12 11 10 10 10 9 9 9 8 8 8 8 8 9 9 9 10 10 11 11 11 11 12 12 13 13 13 14 14 15 15 16
19 20 19 19 18 18 18 17 16 16 15 15 14 13 13 12 12 12 12 12 11 11 12 12 12 12 13 13 14 14 14 15 15 15 16 16 17 17 17 18 18 19 20
21 20 20 20 19 19 19 18 18 18 17 17 17 16 15 15 15 15 15 15 15 15 15 15 15 16 16 17 17 18 18 19 19 19 20 20 21 21 22 22 22 23 24
21 21 21 21 21 20 20 20 19 19 19 19 19 19 19 18 19 19 18 18 19 19 19 19 19 20 20 21 21 22 22 22 23 23 24 24 24 25 25 26 26 27 28
21 21 20 20 21 21 21 21 21 21 21 21 21 21 21 21 21 22 22 22 22 22 23 23 23 23 23 24 24 25 25 26 26 27 27 27 28 29 29 30 30 31 32
20 20 20 20 20 20 21 21 22 22 23 23 23 23 23 23 24 24 25 25 25 25 26 26 26 27 27 27 27 28 28 28 29 29 30 31 32 33 33 33 34 35 36
18 19 20 20 20 19 20 21 22 23 23 24 25 25 25 25 26 26 26 27 28 28 29 29 29 29 30 30 30 30 31 32 33 33 34 35 36 36 37 38 38 39 40
17 18 19 20 19 19 20 21 22 23 24 24 25 26 26 26 27 27 28 28 29 29 30 30 30 31 31 32 33 34 34 35 36 37 37 38 39 39 40 41 42 43 44
16 18 19 19 19 19 21 22 23 23 24 24 24 25 26 27 27 28 29 30 30 31 31 32 32 33 33 34 35 36 37 38 39 40 40 41 42 43 44 45 46 47 48
16 16 17 18 19 20 21 22 23 23 23 24 25 25 26 27 29 29 30 31 32 33 34 34 35 36 36 37 37 39 40 41 42 42 43 45 46 47 48 49 50 51 51
15 16 17 18 19 20 21 22 23 24 24 25 26 27 28 29 30 31 32 33 33 35 36 37 38 39 40 40 41 42 43 44 45 46 48 49 50 51 52 53 54 54 55
16 17 18 18 19 20 20 21 22 23 24 25 27 28 30 31 31 32 33 35 36 38 38 39 40 41 43 44 45 46 46 48 49 50 51 53 54 55 55 57 58 58 59
15 17 17 18 20 21 21 21 22 24 25 27 28 29 30 32 33 34 35 37 38 39 40 42 43 44 46 47 48 49 50 52 53 54 54 55 55 57 58 60 62 63 64
18 18 18 18 19 20 20 22 24 26 27 28 30 31 32 34 35 37 39 40 41 42 44 45 47 48 50 50 52 53 54 55 56 57 57 58 59 60 61 63 65 66 67
20 20 19 20 21 22 23 24 26 27 29 30 32 33 35 37 39 41 42 43 44 46 46 48 50 51 52 53 54 55 56 57 59 60 61 62 63 64 64 65 66 67 68

GEFSMA_500_meanwind_120.txt.gz
Wind_Speed
8 7 6 5 4 3 2 2 2 2 2 2 3 3 3 3 3 3 4 4 4 5 6 6 6 7 8 8 8 8 8 8 9 9 8 8 8 9 8 8 8 7 7
10 8 7 6 5 4 3 2 2 2 2 3 3 3 3 3 3 3 4 4 5 5 5 6 6 7 8 8 8 9 9 9 10 10 10 9 9 10 10 9 9 8 8
11 10 8 7 6 5 4 3 3 3 3 3 3 3 3 3 4 4 4 5 5 5 5 6 7 7 8 8 8 8 8 9 9 9 10 10 10 10 10 10 10 9 9
13 11 10 8 7 6 5 4 3 3 3 3 3 4 4 4 4 4 4 5 5 5 5 6 7 7 7 8 8 8 8 8 9 9 9 10 10 10 11 11 11 11 10
15 13 11 10 9 8 6 5 4 4 3 3 3 3 4 4 4 4 4 4 5 4 5 5 6 7 7 7 7 7 7 7 8 9 9 9 9 9 10 11 12 11 11
16 15 13 12 10 9 7 6 5 4 4 3 3 3 4 4 4 4 4 4 4 4 4 5 5 6 6 6 7 7 8 8 8 8 8 8 8 9 9 10 11 12 12
16 16 15 13 12 10 9 8 7 6 5 5 4 4 4 4 4 4 4 5 5 5 5 5 4 5 5 6 6 7 7 8 8 9 9 10 10 9 9 10 11 11 12
17 16 16 15 13 12 10 9 8 8 7 6 6 5 5 4 3 4 4 4 4 4 5 5 5 5 6 6 6 7 7 8 8 8 8 9 10 10 11 11 11 11 12
18 16 16 16 14 13 11 10 9 9 9 8 7 6 6 5 5 4 4 4 5 5 5 5 5 5 6 6 7 7 8 8 8 8 8 9 9 10 11 11 11 12 13
18 18 17 16 15 14 13 11 11 11 10 10 9 8 8 7 7 6 6 6 6 6 6 7 7 7 8 8 8 9 9 9 10 10 10 10 10 10 11 11 12 12 12
18 18 18 17 16 16 14 13 12 12 12 12 12 11 10 9 9 9 8 8 8 8 8 8 9 9 10 10 10 10 11 11 11 11 11 12 12 12 12 13 13 14 14
19 20 19 18 17 17 16 15 14 14 14 14 14 13 12 12 12 11 11 11 11 11 11 11 11 12 12 12 13 13 13 13 14 14 15 15 16 16 16 16 17 17 17
19 20 20 19 19 18 18 17 17 16 16 16 15 15 15 15 15 15 14 14 15 15 15 14 14 15 15 15 15 16 16 17 17 18 18 19 19 20 20 20 21 21 21
19 20 20 20 20 20 20 19 19 18 18 17 17 17 17 18 18 18 18 18 18 18 18 18 18 19 18 19 19 19 20 20 21 21 22 22 23 23 24 24 25 25 25
18 19 20 21 21 22 21 21 20 20 20 20 20 20 20 20 20 20 20 21 21 21 21 21 22 22 23 23 23 23 24 24 25 25 26 27 27 27 27 27 28 28 28
17 19 20 20 21 22 23 23 22 22 21 21 21 22 22 22 22 22 23 23 24 24 24 25 25 25 26 27 27 27 28 28 28 29 30 30 31 31 31 31 31 32 32
18 20 20 21 21 21 22 21 21 21 21 22 23 23 23 23 24 24 25 26 27 27 27 28 29 29 29 30 30 31 31 32 32 32 32 33 33 33 34 34 35 35 36
16 18 19 20 20 21 21 22 22 21 21 22 23 23 24 25 26 26 27 27 28 29 29 29 30 31 31 32 32 33 34 34 35 35 35 36 37 37 37 37 38 38 39
16 17 18 19 20 20 22 23 23 23 23 23 23 24 25 26 27 28 29 29 28 29 30 31 32 33 33 34 35 36 36 37 37 38 38 39 39 40 40 41 41 42 43
16 17 18 19 19 19 20 22 23 23 23 24 25 26 27 28 29 29 29 30 30 30 31 32 33 34 36 37 38 38 39 40 40 41 41 42 43 44 44 45 46 46 47
16 17 18 18 19 19 19 21 22 23 24 25 26 27 28 29 29 30 31 31 31 32 32 34 35 36 37 38 39 41 41 42 43 43 45 46 47 48 49 49 50 51 52
16 16 18 18 19 20 21 22 22 23 24 25 26 28 29 29 30 32 32 33 33 33 34 36 37 38 38 39 41 43 44 45 46 46 47 49 50 51 52 52 53 54 55
17 17 18 19 20 20 21 22 23 24 25 25 26 27 28 29 29 32 33 33 34 35 36 37 38 39 41 42 44 45 46 48 49 50 50 51 52 54 55 56 56 57 58
17 17 18 19 20 21 22 23 24 25 25 27 27 28 28 29 30 31 33 34 35 36 37 39 41 43 44 45 46 47 48 50 51 52 53 54 56 57 59 60 60 60 61
19 19 20 21 22 23 24 25 25 26 27 27 28 28 29 30 31 33 34 34 35 36 38 40 42 44 46 47 48 50 51 53 54 55 55 56 58 59 60 61 62 62 63
22 22 23 24 25 25 26 25 26 27 28 28 29 29 30 31 32 34 35 36 37 39 41 43 45 47 48 50 51 52 53 55 56 57 58 59 60 61 61 62 64 65 66

GEFSMA_500_meanwind_126.txt.gz
Wind_Speed
9 8 7 6 5 4 3 2 2 3 3 3 3 2 2 2 2 3 3 2 2 3 3 4 4 4 4 5 5 5 5 5 5 6 7 7 8 7 7 7 7 7 7
9 8 7 6 6 5 4 4 3 3 4 4 3 3 3 3 3 4 3 3 3 3 4 5 5 4 5 5 5 6 5 6 6 7 7 8 8 8 8 8 8 8 7
10 9 8 7 6 5 5 4 4 4 4 4 4 4 4 3 3 3 3 4 4 4 5 5 5 5 5 5 6 6 6 6 6 6 7 8 8 8 9 9 9 9 8
10 9 9 8 7 6 6 5 5 5 4 5 5 4 4 4 4 3 4 4 4 4 5 5 5 5 5 5 6 6 6 6 6 7 7 8 8 8 9 9 9 10 10
12 11 11 10 8 8 7 6 5 5 5 5 5 4 4 4 4 4 4 4 4 5 4 4 4 5 5 5 5 5 5 6 6 7 7 7 7 8 8 8 9 9 10
14 12 12 11 10 9 8 7 6 6 5 5 5 5 4 5 5 5 5 4 5 5 5 4 4 4 5 5 4 4 5 5 6 6 6 6 7 8 8 8 9 9 10
15 14 13 12 12 11 10 9 8 7 7 6 6 5 5 5 5 5 5 5 5 5 5 5 5 4 4 4 4 5 5 5 6 6 7 7 8 9 9 10 9 9 10
15 14 14 14 14 13 12 11 10 9 8 7 7 6 6 6 5 6 6 5 5 5 5 5 5 4 4 5 5 5 5 5 6 7 7 8 8 9 9 10 10 11 10
14 15 15 15 15 14 14 13 12 11 10 9 8 8 7 7 7 6 5 6 5 5 5 5 6 6 6 6 6 7 6 7 8 8 8 9 9 9 10 10 11 11 11
14 14 15 15 15 16 15 14 14 13 12 11 10 10 10 9 9 8 7 7 6 6 6 6 7 7 7 7 8 9 9 9 9 9 10 10 11 11 11 11 12 12 12
15 15 15 15 16 16 16 15 15 14 13 13 13 12 12 11 11 11 10 9 9 8 8 9 9 9 10 10 10 11 11 11 12 12 12 13 13 13 13 13 14 14 15
14 15 15 16 16 16 17 17 17 16 15 14 14 14 14 14 14 13 13 12 12 12 12 12 12 13 13 13 13 13 14 14 14 15 15 16 16 16 17 17 17 18 18
14 15 15 16 16 16 17 18 18 18 16 16 16 16 16 17 16 16 16 15 15 15 15 15 16 16 16 16 16 16 17 17 17 18 18 19 19 20 20 21 21 22 22
14 15 15 16 17 17 18 19 19 18 18 18 18 18 18 18 18 18 18 18 18 18 18 18 19 19 20 19 20 20 21 21 21 22 22 23 23 24 24 25 25 26 26
15 15 16 17 18 18 18 19 20 20 20 21 20 20 20 20 20 20 20 20 20 20 20 20 21 22 22 22 23 24 24 25 25 26 26 27 27 28 28 29 29 29 29
14 16 16 18 19 19 20 19 20 20 20 20 20 21 22 22 21 22 22 22 23 23 23 23 24 24 25 25 25 26 27 27 28 28 28 29 30 31 31 31 32 32 32
14 16 17 18 19 19 20 20 20 20 20 20 21 20 21 21 22 23 23 24 24 25 25 26 27 27 27 28 29 29 29 30 31 31 32 32 33 34 34 34 35 35 36
15 16 17 18 18 19 19 20 21 22 22 21 21 22 22 22 23 24 25 26 27 27 27 27 28 29 29 30 31 32 32 33 34 34 35 35 35 36 36 37 38 38 39
15 16 17 17 18 19 19 20 21 21 22 22 22 23 23 24 24 25 26 27 28 29 29 29 29 30 31 32 33 34 34 35 35 36 36 37 38 38 39 39 40 41 42
15 16 17 18 19 19 19 19 20 20 20 22 23 24 25 25 26 26 27 27 28 29 30 31 31 32 32 34 35 36 36 36 37 37 38 39 40 41 41 42 43 44 45
16 16 16 16 17 17 18 19 19 19 21 22 23 24 26 27 28 28 29 29 29 31 31 33 34 34 35 36 36 37 37 37 39 39 40 41 42 43 44 45 46 47 48
17 18 18 18 18 18 19 20 21 22 22 23 24 25 26 28 28 29 30 30 31 32 33 34 35 36 37 37 38 38 39 40 41 42 43 44 45 46 47 48 49 49 50
18 18 18 18 18 19 20 20 21 23 24 24 25 27 28 28 29 29 30 30 31 32 33 34 36 36 37 38 39 40 41 43 44 45 47 48 49 49 50 52 53 53 54
18 18 18 18 18 19 20 21 22 23 25 26 27 28 29 29 30 31 32 32 32 32 33 35 36 37 38 39 40 42 44 45 47 48 49 50 50 51 53 55 56 56 57
19 19 20 20 21 21 22 23 24 25 26 26 27 28 29 29 30 30 31 31 32 33 35 36 38 39 40 41 42 44 45 46 47 48 50 51 52 52 54 56 57 58 59
20 21 21 22 23 24 24 24 25 26 26 27 28 28 30 31 31 31 31 32 33 34 36 37 39 40 41 42 43 45 47 48 49 50 51 52 53 54 55 56 58 60 61

GEFSMA_500_meanwind_132.txt.gz
Wind_Speed
6 6 5 4 4 4 3 2 1 1 2 2 3 3 2 2 2 2 2 2 2 2 2 2 2 3 4 4 5 6 6 6 6 7 7 8 9 9 8 9 8 8 8
7 6 6 5 4 4 4 3 2 2 2 2 3 3 3 3 3 3 3 3 3 3 3 3 3 4 4 4 5 6 7 7 7 7 8 8 9 9 9 9 9 9 9
8 7 6 6 5 4 4 3 3 3 3 3 4 4 4 4 4 4 4 3 3 3 3 4 4 4 5 5 5 6 6 7 7 7 8 8 9 9 10 10 10 10 10
10 8 7 7 6 5 4 4 3 3 3 3 4 4 4 4 4 4 4 4 4 4 4 4 5 5 6 6 6 6 6 7 7 7 7 8 8 9 9 10 11 11 11
11 10 9 7 7 6 5 5 4 4 3 4 4 4 4 4 5 5 5 5 5 5 4 4 5 5 5 6 6 6 7 7 7 7 8 8 8 8 9 9 9 10 11
11 11 10 9 8 7 7 6 5 5 4 4 4 5 5 5 5 6 6 6 6 6 5 5 5 5 6 6 7 7 7 8 8 8 8 8 8 9 9 9 9 10 11
12 12 11 10 9 9 8 7 7 7 7 6 6 5 6 6 6 6 7 7 7 7 7 6 6 6 6 7 7 7 7 8 8 8 8 8 8 8 10 10 11 10 11
11 12 11 11 10 10 10 9 9 9 9 8 8 7 7 7 7 7 8 8 8 8 8 8 7 7 6 7 7 7 8 9 9 8 9 9 9 10 10 10 11 11 11
11 12 12 11 11 11 11 10 10 10 10 10 10 9 9 8 8 8 9 8 8 8 8 9 9 8 7 8 9 9 9 9 10 10 10 10 10 11 11 11 11 11 12
11 12 12 11 11 10 10 11 11 11 11 11 11 11 11 10 10 10 10 10 10 10 10 10 10 10 10 11 11 11 11 11 11 12 12 12 12 12 12 13 14 14 15
12 12 12 12 12 12 11 11 12 12 12 12 12 12 12 12 12 12 12 12 12 11 11 12 11 12 12 13 12 13 13 13 14 15 15 15 15 15 16 16 17 17 17
12 13 13 13 13 13 13 13 13 12 13 13 13 13 13 13 14 13 14 14 13 13 14 14 14 14 15 15 15 15 15 16 17 18 18 18 18 19 19 19 20 20 20
13 13 13 13 13 14 14 14 14 14 14 14 14 15 15 15 15 15 15 15 15 15 16 16 16 17 17 18 18 18 18 19 19 20 20 21 21 21 22 23 23 23 23
12 14 14 14 14 14 14 14 14 15 15 15 15 16 16 16 16 16 16 17 17 17 17 18 18 19 19 20 20 21 21 21 21 22 23 24 24 25 25 26 27 28 28
12 12 13 14 15 15 15 15 16 16 17 17 17 17 17 18 17 17 18 18 18 19 19 20 20 21 21 21 22 23 23 24 24 24 25 26 27 28 28 29 29 30 31
11 12 12 13 14 15 16 16 16 17 17 18 18 19 19 19 20 20 19 20 20 20 21 22 23 23 23 24 24 25 26 26 26 27 28 29 30 31 31 31 32 33 34
12 12 14 14 15 16 16 17 17 18 18 19 20 20 20 21 21 21 21 21 21 22 22 23 24 24 25 25 26 27 28 29 29 30 31 32 32 33 33 34 35 36 37
11 12 13 14 14 16 17 18 19 18 19 19 20 21 20 21 21 22 21 21 21 22 23 24 25 26 26 27 28 29 30 31 31 32 33 34 35 36 36 37 38 39 40
11 13 13 13 14 16 17 18 19 19 19 19 19 20 21 22 21 22 21 22 23 24 25 26 27 28 28 29 30 31 32 33 34 35 36 37 38 38 39 40 41 41 42
12 12 13 14 15 17 18 18 18 19 19 19 19 20 22 22 22 22 23 24 25 26 27 28 28 29 30 31 32 33 34 35 36 37 37 38 39 40 42 43 43 44 45
12 13 14 15 16 17 18 18 18 19 19 20 21 21 21 22 22 23 24 25 27 28 28 29 30 30 32 33 33 35 35 36 37 38 39 40 42 43 45 46 47 47 49
13 14 15 16 16 17 18 18 19 19 20 20 21 22 23 24 24 25 26 27 28 29 30 31 31 32 33 34 35 36 37 38 39 40 42 44 46 47 48 49 50 51 52
13 13 14 15 16 17 18 19 19 19 20 20 21 22 24 25 26 27 27 28 29 29 30 32 32 33 34 35 36 37 38 39 41 42 44 45 47 48 49 50 51 52 53
16 16 16 17 18 18 19 19 20 21 21 22 22 24 24 25 26 27 27 28 29 30 30 31 32 33 35 36 37 38 39 40 42 43 45 46 47 49 50 52 53 54 55
17 17 17 18 19 19 19 20 21 22 22 22 23 24 25 26 27 28 28 28 30 30 30 31 32 33 34 36 38 39 40 41 42 43 45 46 47 48 49 51 52 54 55
18 18 18 19 19 19 20 20 21 21 22 22 24 24 25 26 26 27 28 29 30 31 31 31 32 34 36 36 37 39 40 41 42 44 45 46 47 48 48 50 52 54 55

GEFSMA_500_meanwind_138.txt.gz
Wind_Speed
3 3 2 2 2 1 1 1 1 1 0 1 1 1 0 1 0 0 1 1 2 2 3 3 3 4 4 4 5 5 6 6 7 7 8 8 8 9 9 9 9 9 9
5 4 3 3 3 2 1 1 1 2 1 1 1 1 1 1 1 1 1 2 2 3 3 3 3 4 4 5 5 6 6 7 7 7 8 8 8 9 10 10 10 10 9
7 6 5 4 4 3 3 2 2 2 1 2 2 2 2 2 2 2 2 3 3 3 4 4 5 5 5 6 6 6 7 8 8 8 8 8 8 9 9 10 10 10 10
9 8 7 6 5 5 4 4 3 3 2 2 3 3 3 3 3 3 3 4 4 4 5 5 6 6 6 7 7 7 8 8 8 8 8 9 9 9 9 9 10 10 10
10 9 9 8 7 6 6 5 4 4 4 3 3 4 4 4 3 4 4 4 5 5 6 6 6 7 7 7 8 8 8 9 9 9 9 9 9 10 10 10 10 10 10
11 10 9 9 8 8 7 7 6 6 6 5 5 4 5 4 4 5 5 5 6 6 6 7 7 7 8 8 8 9 9 9 10 10 10 11 11 11 11 11 11 12 12
12 10 10 9 9 10 9 9 8 8 8 7 6 6 6 6 6 7 7 7 7 8 8 8 8 8 9 9 10 10 10 10 10 10 11 11 11 12 12 12 12 12 13
12 12 11 10 11 10 10 10 10 10 10 9 8 8 8 8 9 9 9 8 9 9 9 9 9 10 10 10 10 11 11 11 12 12 13 13 12 12 12 13 13 14 14
11 11 11 11 11 11 10 11 11 10 10 10 10 10 10 10 10 10 10 10 10 10 10 11 11 11 11 11 11 11 12 13 13 13 14 15 15 14 14 15 15 15 16
13 12 12 11 11 12 12 12 12 12 11 11 11 11 11 11 11 11 11 12 12 12 12 12 12 12 12 13 13 13 13 14 15 15 16 17 17 17 17 17 18 18 18
13 13 13 13 12 12 13 13 13 13 13 12 12 12 12 12 13 13 14 14 13 13 13 13 14 14 14 14 15 15 16 17 17 17 18 18 19 20 20 20 20 21 21
13 14 13 14 14 13 14 14 14 15 15 15 14 14 14 14 14 15 15 15 15 15 15 16 16 16 16 16 17 17 17 18 19 19 20 21 21 22 22 22 23 24 25
12 14 14 15 15 15 15 15 15 16 17 17 16 16 15 15 16 16 16 17 17 17 17 17 17 18 18 19 19 19 20 20 21 21 22 22 23 24 25 25 25 27 27
12 14 14 15 16 16 16 16 16 17 17 17 17 17 17 17 17 18 18 18 18 18 18 19 19 20 21 21 21 22 22 23 23 24 25 25 26 26 27 28 29 30 31
13 14 15 15 16 17 17 16 16 17 17 17 18 19 19 19 20 20 20 20 20 20 21 21 21 22 23 23 24 25 25 25 26 26 27 28 29 29 30 31 32 33 33
13 14 14 15 16 17 17 18 17 18 19 19 19 20 20 20 21 21 21 22 22 23 23 23 23 23 24 25 26 26 27 27 28 28 29 30 31 32 33 33 34 34 35
13 14 15 16 16 17 18 18 19 19 19 20 20 21 21 22 22 22 22 22 23 23 24 24 25 25 25 26 28 29 29 29 30 31 32 33 33 34 35 35 36 37 37
14 15 15 15 16 17 18 19 19 19 20 20 20 21 22 22 23 23 23 24 25 25 25 26 26 26 27 28 29 30 30 31 32 33 34 35 36 38 38 38 39 40 41
14 14 14 15 16 16 17 18 19 20 19 20 20 21 22 23 23 23 24 24 25 26 26 27 27 28 28 29 29 30 31 32 33 35 36 37 39 40 41 42 43 43 43
14 14 14 15 16 16 17 18 19 20 19 19 20 21 22 23 23 24 25 25 26 26 27 27 27 28 28 29 30 32 33 35 36 37 38 39 40 41 42 43 44 45 45
14 15 16 16 17 17 18 19 19 19 20 21 22 22 23 24 24 25 25 26 27 27 27 27 27 28 29 31 33 34 35 37 38 39 40 41 41 42 44 45 45 46 47
15 16 16 16 17 17 18 19 20 21 21 22 22 23 23 24 25 25 26 27 27 28 27 28 30 31 32 32 33 35 36 37 38 39 40 41 42 43 44 45 46 46 47
14 15 16 16 17 17 18 19 21 22 22 23 23 24 24 24 25 26 26 28 28 28 29 30 31 32 33 34 34 35 36 37 38 40 41 42 43 44 44 45 45 45 47
15 16 16 17 18 18 19 20 20 21 21 23 23 24 24 25 25 26 27 28 28 28 29 30 31 33 33 34 34 35 36 37 38 39 40 41 42 42 43 44 45 46 47
17 17 17 18 19 20 20 21 21 21 22 23 23 24 25 25 25 26 26 27 28 29 30 31 32 33 33 33 33 34 35 36 37 38 39 40 41 42 43 44 45 46 47
18 18 19 19 19 20 20 21 22 22 23 23 24 25 26 26 27 26 27 28 28 29 30 31 32 32 32 32 33 34 35 36 38 38 39 40 41 42 43 44 45 46 45

GEFSMA_500_meanwind_144.txt.gz
Wind_Speed
6 6 5 5 5 5 4 4 4 3 3 3 3 3 3 2 2 2 2 2 2 2 2 3 3 3 3 3 4 4 5 5 5 5 5 5 6 6 6 7 7 7 7
7 6 6 5 5 5 4 4 4 3 3 3 3 3 3 3 2 2 2 2 3 3 3 3 3 3 4 4 5 5 5 6 6 6 6 6 6 6 7 7 7 8 8
8 8 7 6 5 5 4 4 4 3 3 3 3 4 3 3 3 3 3 3 4 4 4 4 4 4 5 6 6 6 6 6 6 7 7 7 7 7 7 7 7 8 8
9 9 8 7 6 6 5 5 5 4 4 3 4 4 4 5 4 4 4 5 5 5 5 5 5 5 6 7 7 7 7 7 8 8 8 8 8 8 8 8 8 8 9
9 8 8 8 8 7 6 6 6 6 5 4 4 4 5 5 5 5 5 6 6 7 7 7 7 6 7 7 7 8 8 9 9 9 9 9 9 9 9 9 10 10 10
9 9 9 8 8 8 7 7 8 7 7 6 6 6 6 6 6 7 7 7 7 7 8 8 8 8 8 8 8 9 10 10 10 10 10 11 11 11 11 11 11 11 11
10 10 9 9 9 9 9 9 9 8 8 8 7 7 7 7 8 8 9 9 9 9 9 10 10 10 10 10 10 11 11 11 11 12 12 12 12 12 12 12 12 12 13
11 11 11 10 10 10 10 10 10 10 9 9 9 9 8 9 9 9 10 10 10 11 11 11 11 12 12 12 12 12 12 12 13 13 13 14 14 14 14 14 14 14 14
12 12 11 11 10 10 10 11 11 10 10 10 10 10 9 10 10 11 11 11 11 12 12 12 13 13 14 14 14 13 14 14 14 15 15 16 16 16 16 16 16 16 16
12 12 12 12 11 11 11 11 12 12 12 12 11 11 11 11 12 12 12 12 12 12 13 13 14 14 14 14 15 15 15 15 15 16 17 17 18 18 18 19 20 20 20
12 12 13 13 13 13 12 12 13 13 13 13 13 13 13 13 13 13 13 13 13 14 14 14 15 16 16 16 16 16 16 16 17 17 18 18 19 19 20 21 21 22 23
12 13 14 14 14 14 13 13 13 14 14 15 15 15 15 15 15 15 15 15 16 16 16 16 17 17 17 18 18 18 18 19 19 19 20 20 21 21 22 23 23 24 24
11 12 14 14 15 15 15 15 14 14 15 16 16 17 17 17 17 17 18 18 18 18 19 19 19 19 19 19 19 20 20 21 21 22 22 22 23 23 24 25 26 26 26
12 13 13 14 15 16 16 17 16 16 16 17 18 19 19 19 19 19 19 19 20 20 21 20 20 20 21 20 21 22 22 23 23 24 24 24 24 25 26 27 28 28 29
12 13 14 15 15 15 16 18 18 19 18 18 18 19 20 20 20 20 20 21 21 22 22 21 22 22 22 22 23 24 24 24 25 25 25 26 27 28 28 29 30 31 32
12 13 14 15 16 17 17 17 17 18 19 19 19 19 20 21 22 22 23 23 23 24 24 23 23 24 23 24 25 26 26 26 26 27 27 28 29 30 31 32 33 34 35
13 14 15 14 15 16 17 17 19 19 19 20 20 20 21 21 23 24 24 24 25 25 25 25 25 24 24 26 26 27 27 28 28 28 28 28 29 30 32 34 35 36 37
14 14 15 15 16 16 16 17 18 19 19 20 21 21 22 22 22 23 23 24 25 26 26 26 25 25 26 26 27 28 29 28 29 29 30 31 32 33 34 35 36 37 38
15 15 15 16 15 15 16 17 17 19 19 20 21 22 22 23 23 23 23 24 25 25 26 25 26 27 27 27 29 29 30 29 29 30 31 33 34 35 36 37 38 38 40
15 15 15 15 16 16 17 17 18 19 19 20 20 22 22 23 23 23 24 24 24 25 25 26 27 28 29 29 30 30 29 30 30 31 32 34 35 36 38 39 39 39 39
16 16 16 16 16 17 18 18 19 19 19 20 21 22 23 23 22 23 24 24 25 25 26 27 28 29 30 30 30 30 31 31 32 33 34 35 36 38 38 39 39 38 39
16 16 16 16 17 18 19 19 20 19 20 21 22 22 22 22 23 24 24 25 25 26 27 28 28 28 29 30 30 31 31 32 33 34 35 36 37 38 38 39 38 39 39
15 16 16 17 17 18 19 20 20 20 21 21 21 22 22 23 24 24 24 25 26 27 28 28 28 29 30 30 31 31 32 33 33 34 35 35 37 38 38 38 39 39 40
16 17 17 18 19 19 19 20 20 21 21 21 22 23 23 24 24 24 24 25 26 27 28 28 29 30 30 30 30 31 31 32 32 33 35 36 37 38 39 39 39 40 41
17 17 18 19 19 20 20 20 20 21 21 22 23 24 24 25 24 25 25 25 26 26 27 28 29 29 29 30 30 30 32 32 33 34 35 36 36 37 39 39 40 40 41
18 18 18 19 20 20 20 21 21 22 23 23 23 24 24 24 24 25 26 26 27 27 28 28 29 28 28 29 30 32 32 33 34 35 36 38 39 39 39 39 39 40 40

GEFSMA_500_meanwind_150.txt.gz
Wind_Speed
3 4 4 5 4 4 4 3 3 3 3 2 2 3 3 2 2 1 1 1 2 2 2 2 3 3 3 3 3 3 4 4 4 4 4 4 4 5 5 5 5 6 6
4 4 4 5 5 5 4 4 4 3 2 2 2 3 3 2 2 2 2 2 2 3 3 3 4 4 3 4 4 4 4 4 5 5 5 5 5 5 6 6 6 6 6
5 4 4 4 5 5 5 4 4 4 3 2 2 3 3 3 3 3 3 3 3 4 4 4 4 5 4 5 5 5 5 5 6 6 6 6 6 6 6 7 7 6 7
6 5 5 5 4 5 5 5 5 5 4 4 3 3 4 4 4 4 4 4 5 5 5 5 5 5 5 5 6 5 6 7 7 8 8 8 8 8 8 8 8 8 8
7 6 6 6 6 6 6 6 6 6 5 5 5 4 5 5 5 5 6 6 6 6 6 6 7 7 7 7 7 7 7 8 9 9 9 9 9 9 9 9 9 10 10
8 7 7 6 6 6 7 7 7 7 7 7 6 6 6 7 6 6 6 6 7 7 7 8 8 9 9 9 9 9 9 10 10 11 11 10 10 10 10 10 11 11 11
9 9 8 8 7 7 7 8 9 9 9 8 8 8 8 8 8 8 8 8 8 8 8 9 9 10 10 10 11 11 11 12 12 12 12 12 11 11 11 12 12 13 13
10 10 10 10 9 9 8 9 10 10 9 9 9 9 9 9 8 9 9 10 10 10 10 10 10 11 11 12 12 12 13 13 14 13 14 14 13 14 14 15 15 15 15
9 10 10 10 10 9 9 10 10 10 10 10 11 11 10 10 10 10 10 10 11 11 12 12 11 12 12 12 12 13 13 14 15 15 15 15 15 16 16 17 16 16 17
8 9 10 10 10 10 10 10 10 11 11 11 11 12 12 12 12 11 11 11 11 12 13 12 13 13 13 12 13 14 15 15 15 16 17 17 17 17 18 18 18 18 19
9 10 10 10 11 11 11 11 11 11 12 12 12 13 14 14 14 13 13 13 13 13 14 15 15 14 15 15 15 16 17 17 17 17 17 18 19 20 20 20 21 20 21
10 11 11 11 12 12 12 12 12 13 13 14 14 14 15 15 15 15 15 15 15 16 16 17 17 17 17 17 18 18 18 18 18 19 20 20 21 22 22 22 23 23 23
10 10 11 12 13 14 14 14 15 15 15 15 15 16 16 16 17 17 17 17 17 18 18 18 18 18 19 19 19 19 20 20 21 21 21 21 21 21 22 23 24 24 24
10 10 11 12 13 14 14 15 15 16 16 17 17 17 17 17 18 19 19 18 19 19 19 19 19 20 21 21 21 21 21 22 22 22 22 22 22 23 24 24 25 25 26
11 11 11 12 13 14 15 16 17 17 17 17 18 18 19 19 19 19 19 19 20 20 21 21 21 21 22 23 22 22 22 22 22 23 23 23 24 25 26 27 27 27 28
11 11 12 13 13 14 16 17 18 18 18 17 18 18 18 19 20 20 21 21 21 22 22 23 23 23 24 24 24 24 23 23 23 24 25 25 26 27 28 28 28 29 30
11 12 13 13 14 15 15 15 16 17 17 17 17 17 18 19 20 20 21 21 23 24 23 24 24 25 25 25 26 26 25 24 25 25 26 26 27 27 28 29 30 30 32
11 12 12 13 14 15 15 16 16 16 16 17 17 18 19 20 20 21 22 23 24 25 25 25 26 25 25 25 26 27 26 27 27 27 27 27 28 28 29 30 31 31 32
13 13 13 14 15 15 15 15 15 15 16 17 17 18 19 20 20 21 22 23 24 24 24 25 26 26 26 26 27 27 27 28 29 29 29 29 30 30 30 30 31 32 34
14 14 14 15 15 16 16 16 16 17 17 18 18 19 19 20 21 22 23 24 25 24 25 25 26 26 26 27 28 28 28 29 30 30 30 30 31 31 31 32 32 33 35
15 15 15 15 16 16 17 17 17 18 18 18 19 20 20 21 22 23 23 24 25 25 25 25 26 27 27 27 28 28 29 30 31 31 31 31 32 32 32 32 33 34 35
16 16 16 16 16 16 16 16 17 18 18 19 19 20 21 21 22 23 23 24 24 25 25 26 27 27 27 27 29 29 30 30 31 31 31 31 31 32 33 34 35 35 36
17 17 17 17 17 17 17 17 18 19 19 19 20 20 20 21 21 22 23 23 24 25 25 26 26 27 27 28 30 30 30 30 30 30 31 32 32 34 35 35 36 37 38
18 18 18 18 18 18 18 19 19 20 20 20 20 20 20 21 22 22 22 23 23 25 26 27 26 27 28 29 29 29 29 30 30 32 33 34 34 35 35 36 37 38 40
19 19 19 19 19 19 19 20 21 21 21 21 21 22 23 23 23 23 24 24 25 26 26 27 27 27 28 28 28 28 29 30 32 33 34 34 35 35 37 37 38 38 39
21 21 20 19 20 20 21 21 21 22 22 22 23 24 24 24 25 25 25 25 25 26 27 28 28 28 28 27 28 29 30 31 32 33 33 34 36 37 37 37 37 38 39